W4HSV Weather Reports


time (UTC)temp
C
wind
direction
speed
KPH
gust
KPH
rain 1hr
cm
rain 24hr
cm
rain mn
cm
humidity
%
barometer
mb
20260905230643 36 5 3.2 4.8 0.00 0.00 0.00 52 1010.2
20260905230528 36 5 3.2 4.8 0.00 0.00 0.00 52 1010.1
20260905230418 36 360 3.2 4.8 0.00 0.00 0.00 52 1010.2
20260905230324 36 360 3.2 4.8 0.00 0.00 0.00 51 1010.1
20260905230255 36 10 3.2 4.8 0.00 0.00 0.00 51 1010.1
20260905230048 36 10 3.2 4.8 0.00 0.00 0.00 51 1010.1
20260905225933 36 10 3.2 4.8 0.00 0.00 0.00 51 1010.0
20260905225823 36 10 3.2 6.4 0.00 0.00 0.00 51 1010.0
20260905225731 36 10 3.2 6.4 0.00 0.00 0.00 51 1010.1
20260905225637 36 360 3.2 6.4 0.00 0.00 0.00 51 1010.1
20260905225523 36 360 3.2 6.4 0.00 0.00 0.00 51 1010.1
20260905225429 36 360 3.2 6.4 0.00 0.00 0.00 50 1010.1
20260905225334 36 360 4.8 6.4 0.00 0.00 0.00 50 1010.1
20260905225227 37 5 4.8 6.4 0.00 0.00 0.00 51 1010.1
20260905225133 37 5 3.2 8.0 0.00 0.00 0.00 50 1010.1
20260905225020 37 5 4.8 8.0 0.00 0.00 0.00 50 1010.1
20260905224929 37 5 4.8 8.0 0.00 0.00 0.00 50 1010.0
20260905224809 37 11 4.8 8.0 0.00 0.00 0.00 51 1010.1
20260905224523 37 11 4.8 8.0 0.00 0.00 0.00 50 1010.0
20260905224452 37 355 4.8 8.0 0.00 0.00 0.00 49 1010.1
20260905224357 37 351 4.8 8.0 0.00 0.00 0.00 49 1010.1
20260905224222 37 22 4.8 8.0 0.00 0.00 0.00 49 1010.1
20260905224130 37 5 4.8 8.0 0.00 0.00 0.00 48 1010.0
20260905224020 37 43 3.2 8.0 0.00 0.00 0.00 49 1010.0
20260905223928 37 29 3.2 8.0 0.00 0.00 0.00 48 1010.0
20260905223834 37 34 3.2 8.0 0.00 0.00 0.00 48 1010.1
20260905223741 37 47 4.8 8.0 0.00 0.00 0.00 49 1010.0
20260905223628 37 19 4.8 8.0 0.00 0.00 0.00 48 1010.1
20260905223555 37 42 4.8 8.0 0.00 0.00 0.00 49 1010.1
20260905223420 37 24 3.2 8.0 0.00 0.00 0.00 48 1010.1
20260905223303 37 9 3.2 8.0 0.00 0.00 0.00 48 1010.1
20260905223056 37 5 4.8 8.0 0.00 0.00 0.00 48 1010.2
20260905222922 37 24 6.4 8.0 0.00 0.00 0.00 48 1010.1
20260905222830 37 29 4.8 8.0 0.00 0.00 0.00 48 1010.2
20260905222721 37 40 3.2 8.0 0.00 0.00 0.00 47 1010.1
20260905222648 37 78 4.8 8.0 0.00 0.00 0.00 47 1010.2
20260905222554 37 41 4.8 8.0 0.00 0.00 0.00 46 1010.0
20260905222420 37 59 4.8 8.0 0.00 0.00 0.00 46 1010.1
20260905222349 37 57 3.2 6.4 0.00 0.00 0.00 46 1010.2
20260905222234 37 47 3.2 6.4 0.00 0.00 0.00 47 1010.1
20260905222125 37 89 1.6 6.4 0.00 0.00 0.00 46 1010.1
20260905222031 37 34 1.6 4.8 0.00 0.00 0.00 46 1010.1
20260905221918 37 360 3.2 8.0 0.00 0.00 0.00 47 1010.1
20260905221845 38 360 3.2 8.0 0.00 0.00 0.00 46 1010.1
20260905221817 38 360 1.6 8.0 0.00 0.00 0.00 46 1010.1
20260905221533 38 325 1.6 8.0 0.00 0.00 0.00 46 1010.1
20260905221420 38 325 1.6 8.0 0.00 0.00 0.00 46 1010.1
20260905221346 38 30 3.2 8.0 0.00 0.00 0.00 47 1010.2
20260905221232 38 38 3.2 12.9 0.00 0.00 0.00 47 1010.2
20260905221140 38 20 4.8 14.5 0.00 0.00 0.00 47 1010.2
20260905221027 38 15 4.8 14.5 0.00 0.00 0.00 47 1010.2
20260905220919 38 348 3.2 14.5 0.00 0.00 0.00 46 1010.2
20260905220826 37 355 3.2 14.5 0.00 0.00 0.00 47 1010.3
20260905220732 37 355 4.8 14.5 0.00 0.00 0.00 47 1010.2
20260905220639 37 9 4.8 14.5 0.00 0.00 0.00 47 1010.2
20260905220525 37 11 4.8 14.5 0.00 0.00 0.00 47 1010.2
20260905220432 37 9 8.0 14.5 0.00 0.00 0.00 48 1010.2
20260905220339 38 5 8.0 14.5 0.00 0.00 0.00 48 1010.3
20260905220253 37 346 6.4 12.9 0.00 0.00 0.00 48 1010.3
20260905220026 37 53 4.8 14.5 0.00 0.00 0.00 47 1010.2
20260905215933 37 44 6.4 16.1 0.00 0.00 0.00 47 1010.2
20260905215820 37 360 6.4 16.1 0.00 0.00 0.00 47 1010.3
20260905215732 37 28 6.4 16.1 0.00 0.00 0.00 47 1010.2
20260905215620 37 49 6.4 16.1 0.00 0.00 0.00 47 1010.3
20260905215548 37 40 8.0 16.1 0.00 0.00 0.00 47 1010.3
20260905215453 37 11 8.0 16.1 0.00 0.00 0.00 48 1010.3
20260905215318 37 44 9.7 16.1 0.00 0.00 0.00 48 1010.3
20260905215224 37 23 9.7 16.1 0.00 0.00 0.00 47 1010.2
20260905215131 37 41 8.0 16.1 0.00 0.00 0.00 46 1010.3
20260905215022 38 61 6.4 12.9 0.00 0.00 0.00 46 1010.3
20260905214929 38 42 6.4 12.9 0.00 0.00 0.00 46 1010.3
20260905214836 38 65 6.4 11.3 0.00 0.00 0.00 46 1010.3
20260905214806 38 43 6.4 11.3 0.00 0.00 0.00 46 1010.3
20260905214523 38 50 6.4 14.5 0.00 0.00 0.00 48 1010.4
20260905214431 38 26 4.8 14.5 0.00 0.00 0.00 47 1010.3
20260905214318 38 67 4.8 14.5 0.00 0.00 0.00 47 1010.3
20260905214225 38 44 4.8 14.5 0.00 0.00 0.00 47 1010.3
20260905214132 38 54 4.8 14.5 0.00 0.00 0.00 46 1010.2
20260905214018 38 30 6.4 16.1 0.00 0.00 0.00 46 1010.3
20260905213949 38 39 8.0 16.1 0.00 0.00 0.00 46 1010.4
20260905213835 38 53 6.4 16.1 0.00 0.00 0.00 48 1010.2
20260905213722 38 36 1.6 16.1 0.00 0.00 0.00 46 1010.3
20260905213650 38 71 1.6 16.1 0.00 0.00 0.00 49 1010.3
20260905213536 38 355 3.2 16.1 0.00 0.00 0.00 46 1010.4
20260905213443 38 350 4.8 16.1 0.00 0.00 0.00 45 1010.3
20260905213329 38 12 4.8 8.0 0.00 0.00 0.00 45 1010.4
20260905213304 38 5 3.2 8.0 0.00 0.00 0.00 46 1010.4
20260905213018 38 144 1.6 8.0 0.00 0.00 0.00 45 1010.3
20260905212946 38 84 1.6 8.0 0.00 0.00 0.00 45 1010.3
20260905212853 38 290 1.6 8.0 0.00 0.00 0.00 44 1010.3
20260905212719 38 290 3.2 12.9 0.00 0.00 0.00 45 1010.3
20260905212630 38 282 4.8 14.5 0.00 0.00 0.00 45 1010.3
20260905212557 38 309 4.8 14.5 0.00 0.00 0.00 45 1010.4
20260905212422 38 10 4.8 14.5 0.00 0.00 0.00 46 1010.3
20260905212330 38 351 6.4 14.5 0.00 0.00 0.00 45 1010.2
20260905212237 38 32 6.4 14.5 0.00 0.00 0.00 45 1010.4
20260905212125 38 5 6.4 14.5 0.00 0.00 0.00 46 1010.3
20260905212055 38 19 6.4 14.5 0.00 0.00 0.00 46 1010.2
20260905211920 38 22 6.4 14.5 0.00 0.00 0.00 46 1010.4
20260905211848 38 360 8.0 14.5 0.00 0.00 0.00 45 1010.3
20260905211818 38 355 6.4 14.5 0.00 0.00 0.00 45 1010.3
20260905211550 38 69 1.6 12.9 0.00 0.00 0.00 44 1010.3
20260905211422 38 355 1.6 12.9 0.00 0.00 0.00 44 1010.4
20260905211327 38 355 3.2 12.9 0.00 0.00 0.00 43 1010.4
20260905211233 38 355 3.2 12.9 0.00 0.00 0.00 45 1010.3
20260905211119 38 337 3.2 12.9 0.00 0.00 0.00 45 1010.4
20260905211027 38 320 3.2 12.9 0.00 0.00 0.00 45 1010.4
20260905210934 38 318 4.8 12.9 0.00 0.00 0.00 45 1010.4
20260905210825 38 9 8.0 12.9 0.00 0.00 0.00 46 1010.4
20260905210753 38 26 8.0 12.9 0.00 0.00 0.00 46 1010.3
20260905210658 38 22 6.4 12.9 0.00 0.00 0.00 46 1010.4
20260905210543 38 47 1.6 9.7 0.00 0.00 0.00 45 1010.3
20260905210430 38 20 1.6 9.7 0.00 0.00 0.00 46 1010.4
20260905210337 38 57 3.2 9.7 0.00 0.00 0.00 47 1010.4
20260905210312 38 360 4.8 9.7 0.00 0.00 0.00 47 1010.4
20260905210024 38 355 4.8 9.7 0.00 0.00 0.00 46 1010.3
20260905205951 38 5 4.8 9.7 0.00 0.00 0.00 45 1010.3
20260905205858 38 291 6.4 9.7 0.00 0.00 0.00 46 1010.2
20260905205723 38 290 6.4 14.5 0.00 0.00 0.00 47 1010.3
20260905205630 38 346 6.4 14.5 0.00 0.00 0.00 46 1010.3
20260905205557 38 348 6.4 14.5 0.00 0.00 0.00 48 1010.4
20260905205427 38 9 3.2 14.5 0.00 0.00 0.00 46 1010.3
20260905205335 38 295 3.2 14.5 0.00 0.00 0.00 47 1010.3
20260905205241 38 319 6.4 14.5 0.00 0.00 0.00 47 1010.4
20260905205127 38 10 6.4 14.5 0.00 0.00 0.00 47 1010.4
20260905205033 38 336 9.7 14.5 0.00 0.00 0.00 47 1010.4
20260905204959 38 333 9.7 14.5 0.00 0.00 0.00 48 1010.4
20260905204827 38 22 6.4 14.5 0.00 0.00 0.00 48 1010.5
20260905204758 38 350 4.8 12.9 0.00 0.00 0.00 48 1010.5
20260905204532 38 355 3.2 4.8 0.00 0.00 0.00 47 1010.5
20260905204418 38 294 1.6 4.8 0.00 0.00 0.00 46 1010.5
20260905204324 38 155 1.6 6.4 0.00 0.00 0.00 45 1010.5
20260905204236 38 211 1.6 6.4 0.00 0.00 0.00 45 1010.6
20260905204122 38 209 1.6 6.4 0.00 0.00 0.00 45 1010.5
20260905204030 38 194 1.6 12.9 0.00 0.00 0.00 45 1010.6
20260905203918 38 298 1.6 14.5 0.00 0.00 0.00 45 1010.6
20260905203825 38 79 1.6 14.5 0.00 0.00 0.00 45 1010.6
20260905203735 38 44 1.6 14.5 0.00 0.00 0.00 48 1010.7
20260905203621 38 17 3.2 14.5 0.00 0.00 0.00 45 1010.7
20260905203527 38 17 4.8 14.5 0.00 0.00 0.00 45 1010.7
20260905203433 38 36 4.8 14.5 0.00 0.00 0.00 48 1010.7
20260905203342 38 31 8.0 14.5 0.00 0.00 0.00 47 1010.7
20260905203316 38 309 11.3 14.5 0.00 0.00 0.00 47 1010.7
20260905203029 38 27 9.7 14.5 0.00 0.00 0.00 47 1010.7
20260905202935 38 355 8.0 14.5 0.00 0.00 0.00 46 1010.8
20260905202842 38 55 9.7 14.5 0.00 0.00 0.00 47 1010.7
20260905202728 38 65 8.0 14.5 0.00 0.00 0.00 46 1010.7
20260905202635 38 53 4.8 12.9 0.00 0.00 0.00 47 1010.8
20260905202525 38 11 4.8 12.9 0.00 0.00 0.00 47 1010.8
20260905202432 38 360 4.8 12.9 0.00 0.00 0.00 47 1010.8
20260905202318 37 5 4.8 12.9 0.00 0.00 0.00 47 1010.8
20260905202224 37 324 4.8 12.9 0.00 0.00 0.00 48 1010.8
20260905202132 37 329 6.4 12.9 0.00 0.00 0.00 48 1010.8
20260905202022 37 349 8.0 12.9 0.00 0.00 0.00 50 1010.8
20260905201929 37 12 4.8 12.9 0.00 0.00 0.00 49 1010.8
20260905201835 37 338 1.6 8.0 0.00 0.00 0.00 47 1010.9
20260905201805 37 340 1.6 8.0 0.00 0.00 0.00 47 1010.9
20260905201538 37 235 3.2 8.0 0.00 0.00 0.00 47 1010.9
20260905201428 38 154 3.2 8.0 0.00 0.00 0.00 46 1010.9
20260905201335 38 223 4.8 8.0 0.00 0.00 0.00 47 1011.0
20260905201221 38 248 4.8 8.0 0.00 0.00 0.00 46 1011.0
20260905201128 38 186 3.2 8.0 0.00 0.00 0.00 46 1011.0
20260905201035 38 179 3.2 8.0 0.00 0.00 0.00 46 1011.1
20260905200942 38 311 4.8 9.7 0.00 0.00 0.00 47 1011.1
20260905200832 38 284 3.2 8.0 0.00 0.00 0.00 49 1011.0
20260905200720 38 10 4.8 8.0 0.00 0.00 0.00 48 1011.1
20260905200646 38 5 4.8 8.0 0.00 0.00 0.00 48 1011.1
20260905200531 38 223 1.6 9.7 0.00 0.00 0.00 48 1011.2
20260905200436 38 36 1.6 9.7 0.00 0.00 0.00 48 1011.1
20260905200342 38 30 3.2 9.7 0.00 0.00 0.00 52 1011.1
20260905200255 38 30 4.8 9.7 0.00 0.00 0.00 48 1011.1
20260905200027 38 319 3.2 12.9 0.00 0.00 0.00 49 1011.3
20260905195935 38 70 3.2 16.1 0.00 0.00 0.00 47 1011.3
20260905195820 38 26 6.4 16.1 0.00 0.00 0.00 46 1011.3
20260905195727 38 300 8.0 16.1 0.00 0.00 0.00 47 1011.4
20260905195637 38 321 6.4 16.1 0.00 0.00 0.00 47 1011.4
20260905195524 38 276 1.6 16.1 0.00 0.00 0.00 47 1011.4
20260905195432 38 24 1.6 16.1 0.00 0.00 0.00 47 1011.4
20260905195339 38 355 4.8 16.1 0.00 0.00 0.00 48 1011.5
20260905195226 38 355 8.0 16.1 0.00 0.00 0.00 48 1011.5
20260905195132 38 313 9.7 16.1 0.00 0.00 0.00 48 1011.4
20260905195023 38 336 6.4 12.9 0.00 0.00 0.00 48 1011.5
20260905194929 38 355 6.4 12.9 0.00 0.00 0.00 47 1011.5
20260905194837 38 9 6.4 12.9 0.00 0.00 0.00 50 1011.5
20260905194808 38 10 8.0 12.9 0.00 0.00 0.00 50 1011.5
20260905194526 38 336 8.0 12.9 0.00 0.00 0.00 48 1011.5
20260905194433 38 355 6.4 12.9 0.00 0.00 0.00 48 1011.5
20260905194319 37 296 6.4 14.5 0.00 0.00 0.00 48 1011.4
20260905194227 37 248 4.8 16.1 0.00 0.00 0.00 49 1011.5
20260905194134 37 15 4.8 16.1 0.00 0.00 0.00 49 1011.5
20260905194020 37 291 6.4 16.1 0.00 0.00 0.00 51 1011.4
20260905193947 37 340 6.4 16.1 0.00 0.00 0.00 52 1011.6
20260905193836 37 331 6.4 16.1 0.00 0.00 0.00 51 1011.5
20260905193722 37 12 8.0 16.1 0.00 0.00 0.00 51 1011.6
20260905193628 37 331 9.7 16.1 0.00 0.00 0.00 51 1011.6
20260905193556 37 9 8.0 16.1 0.00 0.00 0.00 51 1011.7
20260905193440 37 19 3.2 14.5 0.00 0.00 0.00 48 1011.6
20260905193328 37 63 3.2 14.5 0.00 0.00 0.00 48 1011.6
20260905193303 37 5 4.8 14.5 0.00 0.00 0.00 47 1011.6
20260905193036 37 70 8.0 14.5 0.00 0.00 0.00 48 1011.6
20260905192922 37 41 6.4 14.5 0.00 0.00 0.00 47 1011.6
20260905192830 37 49 9.7 14.5 0.00 0.00 0.00 48 1011.6
20260905192757 37 26 9.7 14.5 0.00 0.00 0.00 48 1011.7
20260905192626 37 61 6.4 14.5 0.00 0.00 0.00 49 1011.6
20260905192532 37 36 6.4 14.5 0.00 0.00 0.00 49 1011.6
20260905192458 37 319 8.0 14.5 0.00 0.00 0.00 50 1011.6
20260905192343 37 346 4.8 16.1 0.00 0.00 0.00 49 1011.6
20260905192229 37 297 3.2 16.1 0.00 0.00 0.00 50 1011.7
20260905192155 37 14 3.2 16.1 0.00 0.00 0.00 48 1011.7
20260905192021 37 51 4.8 16.1 0.00 0.00 0.00 50 1011.8
20260905191930 37 355 4.8 16.1 0.00 0.00 0.00 49 1011.7
20260905191838 37 331 6.4 16.1 0.00 0.00 0.00 52 1011.8
20260905191809 37 292 8.0 16.1 0.00 0.00 0.00 50 1011.8
20260905191523 37 307 8.0 16.1 0.00 0.00 0.00 50 1011.8
20260905191435 37 333 6.4 12.9 0.00 0.00 0.00 51 1011.8
20260905191321 37 355 6.4 12.9 0.00 0.00 0.00 51 1011.9
20260905191229 37 322 4.8 9.7 0.00 0.00 0.00 52 1011.9
20260905191135 37 30 4.8 9.7 0.00 0.00 0.00 51 1011.9
20260905191022 37 36 3.2 9.7 0.00 0.00 0.00 53 1011.9
20260905190929 37 5 4.8 9.7 0.00 0.00 0.00 49 1011.9
20260905190820 37 360 3.2 9.7 0.00 0.00 0.00 51 1011.9
20260905190728 37 302 3.2 8.0 0.00 0.00 0.00 50 1012.0
20260905190656 37 22 3.2 8.0 0.00 0.00 0.00 51 1012.0
20260905190523 37 78 3.2 9.7 0.00 0.00 0.00 50 1012.0
20260905190430 37 308 4.8 9.7 0.00 0.00 0.00 51 1012.1
20260905190336 37 314 4.8 9.7 0.00 0.00 0.00 52 1012.1
20260905190312 37 335 3.2 9.7 0.00 0.00 0.00 52 1012.1
20260905190024 37 303 3.2 9.7 0.00 0.00 0.00 50 1012.1
20260905185929 37 56 6.4 9.7 0.00 0.00 0.00 50 1012.1
20260905185856 37 76 4.8 12.9 0.00 0.00 0.00 51 1012.2
20260905185727 37 91 4.8 14.5 0.00 0.00 0.00 50 1012.2
20260905185632 37 83 6.4 14.5 0.00 0.00 0.00 50 1012.2
20260905185537 37 66 4.8 17.7 0.00 0.00 0.00 54 1012.2
20260905185423 37 121 6.4 17.7 0.00 0.00 0.00 54 1012.2
20260905185330 37 144 6.4 17.7 0.00 0.00 0.00 53 1012.2
20260905185258 37 131 6.4 17.7 0.00 0.00 0.00 52 1012.3
20260905185143 37 56 6.4 17.7 0.00 0.00 0.00 49 1012.2
20260905185049 37 28 6.4 17.7 0.00 0.00 0.00 51 1012.3
20260905184921 37 348 8.0 17.7 0.00 0.00 0.00 49 1012.3
20260905184828 37 46 8.0 17.7 0.00 0.00 0.00 50 1012.3
20260905184757 37 77 8.0 14.5 0.00 0.00 0.00 52 1012.3
20260905184530 37 15 8.0 14.5 0.00 0.00 0.00 51 1012.3
20260905184421 37 321 8.0 14.5 0.00 0.00 0.00 52 1012.4
20260905184328 37 348 8.0 14.5 0.00 0.00 0.00 53 1012.4
20260905184234 37 346 6.4 14.5 0.00 0.00 0.00 53 1012.4
20260905184121 37 27 4.8 14.5 0.00 0.00 0.00 52 1012.4
20260905184028 37 337 4.8 14.5 0.00 0.00 0.00 52 1012.4
20260905183919 37 318 4.8 14.5 0.00 0.00 0.00 53 1012.5
20260905183825 37 283 8.0 14.5 0.00 0.00 0.00 54 1012.4
20260905183733 37 329 8.0 14.5 0.00 0.00 0.00 54 1012.4
20260905183621 37 346 4.8 12.9 0.00 0.00 0.00 52 1012.4
20260905183548 37 317 3.2 12.9 0.00 0.00 0.00 52 1012.4
20260905183434 36 294 4.8 12.9 0.00 0.00 0.00 53 1012.5
20260905183342 36 277 8.0 12.9 0.00 0.00 0.00 54 1012.5
20260905183256 36 302 8.0 12.9 0.00 0.00 0.00 52 1012.5
20260905183029 36 253 6.4 14.5 0.00 0.00 0.00 53 1012.5
20260905182956 36 5 4.8 14.5 0.00 0.00 0.00 53 1012.5
20260905182823 36 313 4.8 14.5 0.00 0.00 0.00 53 1012.5
20260905182731 36 291 4.8 14.5 0.00 0.00 0.00 54 1012.5
20260905182622 36 261 6.4 14.5 0.00 0.00 0.00 54 1012.6
20260905182530 36 281 6.4 14.5 0.00 0.00 0.00 54 1012.5
20260905182457 36 321 4.8 14.5 0.00 0.00 0.00 54 1012.5
20260905182322 36 307 6.4 14.5 0.00 0.00 0.00 54 1012.5
20260905182228 36 300 9.7 14.5 0.00 0.00 0.00 55 1012.5
20260905182118 36 290 8.0 14.5 0.00 0.00 0.00 54 1012.5
20260905182026 36 315 8.0 16.1 0.00 0.00 0.00 55 1012.5
20260905181932 36 309 8.0 16.1 0.00 0.00 0.00 55 1012.5
20260905181839 36 321 6.4 16.1 0.00 0.00 0.00 55 1012.5
20260905181810 36 311 8.0 16.1 0.00 0.00 0.00 56 1012.5
20260905181526 36 5 8.0 16.1 0.00 0.00 0.00 56 1012.7
20260905181433 36 334 8.0 16.1 0.00 0.00 0.00 56 1012.7
20260905181321 36 355 9.7 16.1 0.00 0.00 0.00 55 1012.7
20260905181228 36 14 6.4 16.1 0.00 0.00 0.00 55 1012.7
20260905181134 36 40 1.6 11.3 0.00 0.00 0.00 54 1012.7
20260905181025 36 109 3.2 11.3 0.00 0.00 0.00 53 1012.7
20260905180932 36 77 3.2 11.3 0.00 0.00 0.00 55 1012.7
20260905180820 36 171 4.8 11.3 0.00 0.00 0.00 53 1012.8
20260905180727 36 109 6.4 11.3 0.00 0.00 0.00 52 1012.8
20260905180634 36 135 6.4 11.3 0.00 0.00 0.00 56 1012.7
20260905180520 36 108 4.8 9.7 0.00 0.00 0.00 54 1012.7
20260905180452 36 80 3.2 11.3 0.00 0.00 0.00 54 1012.8
20260905180358 36 51 1.6 9.7 0.00 0.00 0.00 54 1012.8
20260905180330 36 44 1.6 12.9 0.00 0.00 0.00 55 1012.9
20260905180022 36 327 4.8 12.9 0.00 0.00 0.00 53 1012.9
20260905175929 36 9 4.8 12.9 0.00 0.00 0.00 55 1012.9
20260905175820 36 360 6.4 12.9 0.00 0.00 0.00 54 1012.9
20260905175726 36 25 6.4 12.9 0.00 0.00 0.00 54 1013.0
20260905175632 36 30 8.0 12.9 0.00 0.00 0.00 54 1012.9
20260905175519 36 333 8.0 12.9 0.00 0.00 0.00 56 1012.9
20260905175427 36 337 6.4 12.9 0.00 0.00 0.00 56 1013.0
20260905175318 36 5 3.2 14.5 0.00 0.00 0.00 55 1013.0
20260905175227 36 19 1.6 14.5 0.00 0.00 0.00 56 1013.0
20260905175134 36 261 1.6 14.5 0.00 0.00 0.00 53 1013.0
20260905175021 36 274 1.6 14.5 0.00 0.00 0.00 54 1012.9
20260905174928 36 329 1.6 14.5 0.00 0.00 0.00 54 1013.0
20260905174836 36 329 4.8 14.5 0.00 0.00 0.00 56 1012.9
20260905174811 36 322 8.0 14.5 0.00 0.00 0.00 56 1012.9
20260905174524 36 351 11.3 14.5 0.00 0.00 0.00 56 1013.0
20260905174432 36 5 9.7 14.5 0.00 0.00 0.00 56 1013.0
20260905174320 36 327 8.0 14.5 0.00 0.00 0.00 55 1013.0
20260905174230 36 313 4.8 12.9 0.00 0.00 0.00 56 1013.0
20260905174119 36 355 3.2 8.0 0.00 0.00 0.00 56 1013.1
20260905174027 36 206 4.8 8.0 0.00 0.00 0.00 55 1013.1
20260905173934 36 308 4.8 8.0 0.00 0.00 0.00 55 1013.1
20260905173822 36 339 4.8 8.0 0.00 0.00 0.00 57 1013.0
20260905173748 36 314 4.8 8.0 0.00 0.00 0.00 57 1013.1
20260905173639 36 286 4.8 8.0 0.00 0.00 0.00 56 1013.1
20260905173525 36 252 3.2 8.0 0.00 0.00 0.00 58 1013.1
20260905173432 36 191 1.6 9.7 0.00 0.00 0.00 57 1013.1
20260905173338 36 100 1.6 9.7 0.00 0.00 0.00 55 1013.2
20260905173309 36 186 3.2 9.7 0.00 0.00 0.00 55 1013.2
20260905173026 36 20 4.8 12.9 0.00 0.00 0.00 58 1013.1
20260905172953 36 25 4.8 14.5 0.00 0.00 0.00 56 1013.2
20260905172818 36 5 4.8 14.5 0.00 0.00 0.00 57 1013.1
20260905172725 35 346 4.8 14.5 0.00 0.00 0.00 56 1013.3
20260905172633 35 355 6.4 14.5 0.00 0.00 0.00 57 1013.3
20260905172541 35 323 6.4 14.5 0.00 0.00 0.00 57 1013.3
20260905172447 35 296 6.4 14.5 0.00 0.00 0.00 57 1013.3
20260905172336 35 344 8.0 14.5 0.00 0.00 0.00 58 1013.3
20260905172223 35 321 9.7 16.1 0.00 0.00 0.00 57 1013.3
20260905172129 35 339 11.3 16.1 0.00 0.00 0.00 57 1013.3
20260905172056 35 26 9.7 16.1 0.00 0.00 0.00 57 1013.3
20260905171922 35 360 8.0 16.1 0.00 0.00 0.00 58 1013.4
20260905171829 35 343 8.0 16.1 0.00 0.00 0.00 56 1013.3
20260905171804 35 5 9.7 16.1 0.00 0.00 0.00 58 1013.3
20260905171518 35 328 11.3 16.1 0.00 0.00 0.00 57 1013.3
20260905171425 35 308 11.3 16.1 0.00 0.00 0.00 59 1013.4
20260905171332 35 327 8.0 16.1 0.00 0.00 0.00 59 1013.4
20260905171223 35 339 6.4 11.3 0.00 0.00 0.00 57 1013.4
20260905171130 35 348 6.4 11.3 0.00 0.00 0.00 57 1013.4
20260905171057 35 355 6.4 11.3 0.00 0.00 0.00 58 1013.4
20260905170924 35 223 4.8 11.3 0.00 0.00 0.00 57 1013.4
20260905170832 35 225 4.8 11.3 0.00 0.00 0.00 56 1013.4
20260905170719 35 212 4.8 11.3 0.00 0.00 0.00 56 1013.4
20260905170630 35 114 4.8 11.3 0.00 0.00 0.00 56 1013.3
20260905170536 36 211 6.4 12.9 0.00 0.00 0.00 57 1013.5
20260905170424 36 228 6.4 12.9 0.00 0.00 0.00 58 1013.5
20260905170331 36 302 4.8 12.9 0.00 0.00 0.00 58 1013.4
20260905170301 36 252 4.8 12.9 0.00 0.00 0.00 58 1013.4
20260905170037 35 268 6.4 12.9 0.00 0.00 0.00 57 1013.5
20260905165945 36 309 4.8 12.9 0.00 0.00 0.00 58 1013.4
20260905165831 36 281 3.2 12.9 0.00 0.00 0.00 56 1013.5
20260905165738 36 203 3.2 12.9 0.00 0.00 0.00 58 1013.5
20260905165623 35 313 4.8 12.9 0.00 0.00 0.00 57 1013.5
20260905165530 35 360 4.8 12.9 0.00 0.00 0.00 58 1013.4
20260905165420 35 355 4.8 14.5 0.00 0.00 0.00 56 1013.4
20260905165327 35 342 6.4 14.5 0.00 0.00 0.00 58 1013.5
20260905165234 35 328 8.0 16.1 0.00 0.00 0.00 58 1013.5
20260905165119 35 338 8.0 16.1 0.00 0.00 0.00 59 1013.6
20260905165025 35 346 6.4 16.1 0.00 0.00 0.00 59 1013.7
20260905164931 35 342 6.4 16.1 0.00 0.00 0.00 59 1013.6
20260905164902 35 348 8.0 16.1 0.00 0.00 0.00 59 1013.6
20260905164811 35 319 9.7 16.1 0.00 0.00 0.00 59 1013.6
20260905164543 35 5 11.3 16.1 0.00 0.00 0.00 60 1013.6
20260905164429 35 348 9.7 16.1 0.00 0.00 0.00 61 1013.6
20260905164336 35 355 8.0 16.1 0.00 0.00 0.00 59 1013.7
20260905164228 35 306 9.7 14.5 0.00 0.00 0.00 58 1013.7
20260905164134 35 325 9.7 14.5 0.00 0.00 0.00 59 1013.7
20260905164022 35 335 8.0 14.5 0.00 0.00 0.00 58 1013.6
20260905163948 35 318 8.0 14.5 0.00 0.00 0.00 58 1013.8
20260905163834 35 273 8.0 14.5 0.00 0.00 0.00 60 1013.7
20260905163721 35 253 8.0 12.9 0.00 0.00 0.00 58 1013.8
20260905163631 35 268 4.8 12.9 0.00 0.00 0.00 58 1013.8
20260905163519 35 313 4.8 12.9 0.00 0.00 0.00 59 1013.7
20260905163445 35 341 4.8 12.9 0.00 0.00 0.00 58 1013.8
20260905163331 35 298 8.0 12.9 0.00 0.00 0.00 58 1013.8
20260905163300 35 282 8.0 12.9 0.00 0.00 0.00 59 1013.8
20260905163037 35 309 4.8 12.9 0.00 0.00 0.00 59 1013.8
20260905162925 35 315 3.2 12.9 0.00 0.00 0.00 60 1013.9
20260905162851 35 226 6.4 12.9 0.00 0.00 0.00 61 1014.0
20260905162737 35 5 8.0 12.9 0.00 0.00 0.00 61 1014.0
20260905162623 35 355 6.4 12.9 0.00 0.00 0.00 61 1014.0
20260905162529 35 5 4.8 12.9 0.00 0.00 0.00 60 1014.0
20260905162419 35 355 4.8 12.9 0.00 0.00 0.00 60 1014.1
20260905162346 35 294 6.4 12.9 0.00 0.00 0.00 60 1014.0
20260905162233 35 267 4.8 12.9 0.00 0.00 0.00 59 1014.0
20260905162120 35 284 6.4 12.9 0.00 0.00 0.00 60 1014.1
20260905162027 35 294 6.4 12.9 0.00 0.00 0.00 59 1014.0
20260905161933 35 288 6.4 12.9 0.00 0.00 0.00 60 1014.0
20260905161844 35 327 4.8 9.7 0.00 0.00 0.00 60 1014.0
20260905161815 35 344 3.2 9.7 0.00 0.00 0.00 59 1014.0
20260905161527 35 48 3.2 9.7 0.00 0.00 0.00 61 1014.1
20260905161434 35 53 4.8 9.7 0.00 0.00 0.00 59 1014.1
20260905161325 35 36 4.8 9.7 0.00 0.00 0.00 63 1014.1
20260905161231 34 20 4.8 12.9 0.00 0.00 0.00 62 1014.1
20260905161157 34 5 4.8 12.9 0.00 0.00 0.00 62 1014.1
20260905161023 34 24 4.8 12.9 0.00 0.00 0.00 62 1014.1
20260905160949 34 287 4.8 12.9 0.00 0.00 0.00 61 1014.1
20260905160835 34 318 4.8 12.9 0.00 0.00 0.00 60 1014.1
20260905160720 34 296 4.8 12.9 0.00 0.00 0.00 61 1014.2
20260905160629 34 318 4.8 12.9 0.00 0.00 0.00 61 1014.2
20260905160518 34 301 8.0 12.9 0.00 0.00 0.00 63 1014.2
20260905160423 34 320 6.4 12.9 0.00 0.00 0.00 64 1014.3
20260905160330 34 322 6.4 9.7 0.00 0.00 0.00 63 1014.3
20260905160300 34 327 6.4 9.7 0.00 0.00 0.00 64 1014.3
20260905160057 33 13 6.4 9.7 0.00 0.00 0.00 63 1014.4
20260905155922 33 321 1.6 8.0 0.00 0.00 0.00 64 1014.2
20260905155829 33 259 0.0 8.0 0.00 0.00 0.00 64 1014.3
20260905155736 33 311 0.0 8.0 0.00 0.00 0.00 63 1014.3
20260905155623 33 311 1.6 8.0 0.00 0.00 0.00 63 1014.3
20260905155530 33 23 1.6 8.0 0.00 0.00 0.00 62 1014.2
20260905155420 33 126 4.8 8.0 0.00 0.00 0.00 61 1014.3
20260905155326 33 126 4.8 8.0 0.00 0.00 0.00 62 1014.3
20260905155253 33 209 4.8 8.0 0.00 0.00 0.00 62 1014.3
20260905155120 33 225 3.2 9.7 0.00 0.00 0.00 61 1014.3
20260905155029 33 186 1.6 9.7 0.00 0.00 0.00 62 1014.3
20260905154919 33 253 1.6 9.7 0.00 0.00 0.00 62 1014.4
20260905154825 33 355 3.2 9.7 0.00 0.00 0.00 63 1014.3
20260905154755 33 355 4.8 9.7 0.00 0.00 0.00 63 1014.3
20260905154528 33 317 6.4 9.7 0.00 0.00 0.00 65 1014.3
20260905154433 33 336 6.4 9.7 0.00 0.00 0.00 63 1014.4
20260905154323 33 313 6.4 9.7 0.00 0.00 0.00 63 1014.3
20260905154230 33 355 4.8 6.4 0.00 0.00 0.00 63 1014.3
20260905154117 33 333 4.8 6.4 0.00 0.00 0.00 63 1014.4
20260905154043 33 322 3.2 6.4 0.00 0.00 0.00 63 1014.4
20260905153929 33 347 1.6 6.4 0.00 0.00 0.00 64 1014.4
20260905153837 33 190 1.6 6.4 0.00 0.00 0.00 64 1014.4
20260905153727 33 287 3.2 6.4 0.00 0.00 0.00 64 1014.4
20260905153633 33 346 1.6 6.4 0.00 0.00 0.00 65 1014.4
20260905153520 33 309 3.2 6.4 0.00 0.00 0.00 65 1014.4
20260905153428 33 295 3.2 8.0 0.00 0.00 0.00 66 1014.5
20260905153335 33 15 3.2 8.0 0.00 0.00 0.00 65 1014.5
20260905153309 33 360 3.2 8.0 0.00 0.00 0.00 65 1014.5
20260905153023 33 5 4.8 8.0 0.00 0.00 0.00 67 1014.5
20260905152930 33 13 4.8 8.0 0.00 0.00 0.00 65 1014.5
20260905152837 33 346 4.8 8.0 0.00 0.00 0.00 66 1014.4
20260905152723 33 360 4.8 8.0 0.00 0.00 0.00 66 1014.4
20260905152634 33 360 4.8 8.0 0.00 0.00 0.00 66 1014.4
20260905152520 33 321 3.2 8.0 0.00 0.00 0.00 65 1014.4
20260905152427 33 275 3.2 12.9 0.00 0.00 0.00 65 1014.3
20260905152332 33 32 4.8 12.9 0.00 0.00 0.00 67 1014.4
20260905152219 33 333 6.4 12.9 0.00 0.00 0.00 66 1014.4
20260905152127 33 360 4.8 12.9 0.00 0.00 0.00 67 1014.4
20260905152036 33 341 4.8 12.9 0.00 0.00 0.00 66 1014.4
20260905151922 33 280 4.8 12.9 0.00 0.00 0.00 66 1014.4
20260905151850 32 325 6.4 12.9 0.00 0.00 0.00 67 1014.3
20260905151800 32 355 6.4 12.9 0.00 0.00 0.00 67 1014.3
20260905151533 32 330 4.8 8.0 0.00 0.00 0.00 67 1014.4
20260905151423 32 5 4.8 8.0 0.00 0.00 0.00 66 1014.5
20260905151351 32 355 3.2 8.0 0.00 0.00 0.00 67 1014.5
20260905151237 32 298 4.8 8.0 0.00 0.00 0.00 67 1014.5
20260905151124 32 360 4.8 8.0 0.00 0.00 0.00 67 1014.4
20260905151031 32 344 3.2 6.4 0.00 0.00 0.00 68 1014.4
20260905150919 32 321 3.2 6.4 0.00 0.00 0.00 69 1014.4
20260905150830 32 313 3.2 4.8 0.00 0.00 0.00 68 1014.4
20260905150757 32 355 1.6 4.8 0.00 0.00 0.00 69 1014.4
20260905150622 32 338 1.6 4.8 0.00 0.00 0.00 69 1014.3
20260905150530 32 320 1.6 4.8 0.00 0.00 0.00 69 1014.3
20260905150457 32 296 3.2 4.8 0.00 0.00 0.00 69 1014.4
20260905150342 32 293 3.2 4.8 0.00 0.00 0.00 68 1014.4
20260905150317 32 307 1.6 4.8 0.00 0.00 0.00 69 1014.4
20260905150030 32 336 1.6 4.8 0.00 0.00 0.00 69 1014.3
20260905145936 32 296 1.6 4.8 0.00 0.00 0.00 69 1014.3
20260905145823 32 306 1.6 4.8 0.00 0.00 0.00 68 1014.4
20260905145731 32 281 1.6 4.8 0.00 0.00 0.00 68 1014.4
20260905145642 32 227 1.6 4.8 0.00 0.00 0.00 68 1014.3
20260905145528 32 271 1.6 4.8 0.00 0.00 0.00 67 1014.3
20260905145433 32 184 1.6 4.8 0.00 0.00 0.00 67 1014.3
20260905145322 32 217 1.6 4.8 0.00 0.00 0.00 67 1014.3
20260905145229 32 218 3.2 4.8 0.00 0.00 0.00 68 1014.4
20260905145136 32 253 3.2 4.8 0.00 0.00 0.00 68 1014.3
20260905145026 32 279 1.6 4.8 0.00 0.00 0.00 69 1014.4
20260905144934 32 244 1.6 4.8 0.00 0.00 0.00 67 1014.4
20260905144900 32 244 1.6 4.8 0.00 0.00 0.00 68 1014.3
20260905144810 32 267 1.6 4.8 0.00 0.00 0.00 68 1014.3
20260905144521 32 294 1.6 4.8 0.00 0.00 0.00 68 1014.3
20260905144433 32 294 1.6 4.8 0.00 0.00 0.00 69 1014.3
20260905144319 32 271 3.2 4.8 0.00 0.00 0.00 70 1014.4
20260905144226 31 271 3.2 4.8 0.00 0.00 0.00 69 1014.5
20260905144133 31 256 3.2 4.8 0.00 0.00 0.00 69 1014.4
20260905144021 31 273 1.6 4.8 0.00 0.00 0.00 69 1014.5
20260905143930 31 290 1.6 4.8 0.00 0.00 0.00 69 1014.5
20260905143837 31 290 1.6 4.8 0.00 0.00 0.00 69 1014.5
20260905143723 31 290 3.2 4.8 0.00 0.00 0.00 71 1014.6
20260905143631 31 277 3.2 4.8 0.00 0.00 0.00 72 1014.5
20260905143519 31 229 3.2 4.8 0.00 0.00 0.00 71 1014.5
20260905143426 31 215 3.2 4.8 0.00 0.00 0.00 73 1014.5
20260905143337 31 279 3.2 4.8 0.00 0.00 0.00 73 1014.6
20260905143308 31 288 1.6 4.8 0.00 0.00 0.00 72 1014.6
20260905143021 31 199 0.0 4.8 0.00 0.00 0.00 72 1014.6
20260905142927 31 198 0.0 4.8 0.00 0.00 0.00 72 1014.6
20260905142819 31 198 0.0 4.8 0.00 0.00 0.00 71 1014.6
20260905142726 31 240 0.0 4.8 0.00 0.00 0.00 72 1014.7
20260905142632 31 229 0.0 4.8 0.00 0.00 0.00 72 1014.6
20260905142519 31 229 1.6 4.8 0.00 0.00 0.00 72 1014.7
20260905142425 31 229 1.6 4.8 0.00 0.00 0.00 71 1014.6
20260905142331 31 201 0.0 4.8 0.00 0.00 0.00 72 1014.7
20260905142222 31 238 0.0 4.8 0.00 0.00 0.00 73 1014.7
20260905142129 31 270 0.0 4.8 0.00 0.00 0.00 73 1014.6
20260905142036 31 273 1.6 4.8 0.00 0.00 0.00 74 1014.7
20260905141923 31 273 1.6 4.8 0.00 0.00 0.00 74 1014.8
20260905141851 31 273 1.6 4.8 0.00 0.00 0.00 74 1014.8
20260905141825 31 304 1.6 4.8 0.00 0.00 0.00 75 1014.8
20260905141518 30 227 0.0 4.8 0.00 0.00 0.00 74 1014.8
20260905141445 30 225 1.6 4.8 0.00 0.00 0.00 75 1014.8
20260905141329 30 258 1.6 4.8 0.00 0.00 0.00 75 1014.8
20260905141236 30 273 1.6 4.8 0.00 0.00 0.00 76 1014.9
20260905141124 30 226 0.0 3.2 0.00 0.00 0.00 76 1014.9
20260905141056 30 192 0.0 3.2 0.00 0.00 0.00 75 1014.9
20260905140922 30 192 0.0 3.2 0.00 0.00 0.00 76 1014.8
20260905140829 30 247 0.0 3.2 0.00 0.00 0.00 76 1014.8
20260905140736 30 247 1.6 3.2 0.00 0.00 0.00 75 1014.9
20260905140624 30 217 0.0 3.2 0.00 0.00 0.00 75 1014.9
20260905140531 30 355 0.0 1.6 0.00 0.00 0.00 76 1014.9
20260905140421 30 355 0.0 1.6 0.00 0.00 0.00 76 1014.9
20260905140347 30 355 0.0 4.8 0.00 0.00 0.00 76 1014.8
20260905140316 30 275 0.0 4.8 0.00 0.00 0.00 76 1014.8
20260905140029 30 275 0.0 4.8 0.00 0.00 0.00 77 1014.8
20260905135920 30 275 0.0 6.4 0.00 0.00 0.00 77 1014.8
20260905135825 30 181 0.0 6.4 0.00 0.00 0.00 77 1014.9
20260905135732 29 181 0.0 6.4 0.00 0.00 0.00 77 1014.9
20260905135620 29 181 0.0 6.4 0.00 0.00 0.00 77 1014.9
20260905135529 29 182 1.6 6.4 0.00 0.00 0.00 77 1014.9
20260905135436 29 182 3.2 6.4 0.00 0.00 0.00 77 1014.9
20260905135327 29 172 1.6 6.4 0.00 0.00 0.00 79 1014.9
20260905135235 29 134 1.6 6.4 0.00 0.00 0.00 78 1014.9
20260905135139 29 201 3.2 6.4 0.00 0.00 0.00 77 1014.9
20260905135025 29 168 3.2 6.4 0.00 0.00 0.00 77 1015.0
20260905134933 29 179 3.2 6.4 0.00 0.00 0.00 78 1014.8
20260905134820 29 215 3.2 6.4 0.00 0.00 0.00 79 1014.9
20260905134754 29 150 3.2 6.4 0.00 0.00 0.00 80 1014.9
20260905134527 29 161 3.2 6.4 0.00 0.00 0.00 80 1014.9
20260905134455 28 137 0.0 4.8 0.00 0.00 0.00 80 1014.9
20260905134321 28 121 0.0 3.2 0.00 0.00 0.00 80 1014.8
20260905134229 28 121 0.0 3.2 0.00 0.00 0.00 80 1014.9
20260905134119 28 121 0.0 3.2 0.00 0.00 0.00 80 1014.8
20260905134026 28 121 0.0 3.2 0.00 0.00 0.00 80 1014.8
20260905133933 28 121 0.0 3.2 0.00 0.00 0.00 81 1014.9
20260905133820 28 156 0.0 1.6 0.00 0.00 0.00 81 1014.9
20260905133727 28 132 0.0 1.6 0.00 0.00 0.00 81 1014.9
20260905133636 28 132 0.0 0.0 0.00 0.00 0.00 81 1015.0
20260905133544 28 113 0.0 3.2 0.00 0.00 0.00 82 1015.0
20260905133432 28 113 0.0 4.8 0.00 0.00 0.00 82 1014.9
20260905133307 28 113 0.0 4.8 0.00 0.00 0.00 82 1014.9
20260905133025 27 109 0.0 4.8 0.00 0.00 0.00 82 1015.0
20260905132953 27 109 0.0 4.8 0.00 0.00 0.00 83 1015.0
20260905132858 27 109 0.0 4.8 0.00 0.00 0.00 83 1015.0
20260905132744 27 109 0.0 4.8 0.00 0.00 0.00 83 1014.9
20260905132630 27 109 0.0 4.8 0.00 0.00 0.00 83 1014.9
20260905132537 27 119 0.0 3.2 0.00 0.00 0.00 83 1014.9
20260905132423 27 155 0.0 3.2 0.00 0.00 0.00 84 1015.0
20260905132335 27 155 0.0 1.6 0.00 0.00 0.00 84 1015.0
20260905132221 27 117 0.0 1.6 0.00 0.00 0.00 85 1014.9
20260905132127 27 86 0.0 1.6 0.00 0.00 0.00 85 1015.0
20260905132035 27 86 0.0 1.6 0.00 0.00 0.00 85 1014.9
20260905131921 27 86 0.0 1.6 0.00 0.00 0.00 85 1014.9
20260905131832 27 86 0.0 1.6 0.00 0.00 0.00 85 1015.0
20260905131803 26 86 0.0 1.6 0.00 0.00 0.00 85 1015.0
20260905131537 26 86 0.0 1.6 0.00 0.00 0.00 86 1015.0
20260905131425 26 86 0.0 1.6 0.00 0.00 0.00 86 1015.0
20260905131332 26 112 0.0 1.6 0.00 0.00 0.00 86 1015.0
20260905131225 26 76 0.0 0.0 0.00 0.00 0.00 86 1015.0
20260905131133 26 76 0.0 1.6 0.00 0.00 0.00 86 1015.1
20260905131041 26 60 0.0 1.6 0.00 0.00 0.00 86 1015.0
20260905130928 26 60 0.0 1.6 0.00 0.00 0.00 86 1015.0
20260905130855 26 60 0.0 1.6 0.00 0.00 0.00 86 1015.0
20260905130721 26 60 0.0 1.6 0.00 0.00 0.00 86 1015.0
20260905130633 26 60 0.0 1.6 0.00 0.00 0.00 86 1014.9
20260905130520 26 60 0.0 1.6 0.00 0.00 0.00 87 1015.0
20260905130427 26 60 0.0 1.6 0.00 0.00 0.00 87 1015.0
20260905130335 26 60 0.0 3.2 0.00 0.00 0.00 87 1014.9
20260905130309 26 60 0.0 4.8 0.00 0.00 0.00 87 1014.9
20260905130041 26 60 0.0 4.8 0.00 0.00 0.00 87 1015.0
20260905125927 26 68 0.0 4.8 0.00 0.00 0.00 88 1015.0
20260905125852 26 68 0.0 4.8 0.00 0.00 0.00 88 1015.0
20260905125737 26 68 0.0 4.8 0.00 0.00 0.00 88 1014.9
20260905125625 25 130 1.6 4.8 0.00 0.00 0.00 88 1015.0
20260905125551 25 130 1.6 4.8 0.00 0.00 0.00 88 1015.0
20260905125422 25 146 1.6 4.8 0.00 0.00 0.00 88 1015.0
20260905125330 25 146 1.6 4.8 0.00 0.00 0.00 88 1015.0
20260905125237 25 113 1.6 3.2 0.00 0.00 0.00 88 1014.9
20260905125124 25 55 0.0 1.6 0.00 0.00 0.00 88 1015.0
20260905125029 25 23 0.0 0.0 0.00 0.00 0.00 88 1015.0
20260905124921 25 23 0.0 0.0 0.00 0.00 0.00 88 1014.9
20260905124827 25 23 0.0 0.0 0.00 0.00 0.00 88 1015.0
20260905124757 25 23 0.0 0.0 0.00 0.00 0.00 88 1015.0
20260905124529 25 23 0.0 0.0 0.00 0.00 0.00 88 1015.0
20260905124456 25 23 0.0 0.0 0.00 0.00 0.00 89 1014.9
20260905124326 25 23 0.0 0.0 0.00 0.00 0.00 89 1014.9
20260905124233 25 23 0.0 0.0 0.00 0.00 0.00 89 1014.9
20260905124120 25 23 0.0 0.0 0.00 0.00 0.00 89 1014.9
20260905124027 25 23 0.0 0.0 0.00 0.00 0.00 89 1014.9
20260905123934 25 23 0.0 0.0 0.00 0.00 0.00 89 1014.9
20260905123820 25 23 0.0 0.0 0.00 0.00 0.00 89 1015.0
20260905123731 25 23 0.0 1.6 0.00 0.00 0.00 89 1014.9
20260905123619 25 23 0.0 1.6 0.00 0.00 0.00 89 1015.0
20260905123527 25 23 0.0 1.6 0.00 0.00 0.00 89 1014.9
20260905123433 25 23 0.0 1.6 0.00 0.00 0.00 89 1015.0
20260905123322 25 23 0.0 1.6 0.00 0.00 0.00 89 1014.9
20260905123258 25 23 0.0 1.6 0.00 0.00 0.00 89 1014.9
20260905123031 25 23 0.0 1.6 0.00 0.00 0.00 90 1015.0
20260905122919 24 23 0.0 1.6 0.00 0.00 0.00 90 1015.0
20260905122827 24 23 0.0 3.2 0.00 0.00 0.00 90 1015.0
20260905122719 24 23 0.0 3.2 0.00 0.00 0.00 90 1015.0
20260905122648 24 23 0.0 3.2 0.00 0.00 0.00 90 1015.0
20260905122554 24 23 0.0 3.2 0.00 0.00 0.00 90 1015.0
20260905122419 24 23 0.0 3.2 0.00 0.00 0.00 90 1015.0
20260905122327 24 23 1.6 3.2 0.00 0.00 0.00 90 1015.0
20260905122234 24 23 1.6 3.2 0.00 0.00 0.00 91 1015.0
20260905122140 24 23 1.6 3.2 0.00 0.00 0.00 91 1014.9
20260905122031 24 23 1.6 3.2 0.00 0.00 0.00 91 1015.0
20260905121919 24 23 1.6 3.2 0.00 0.00 0.00 91 1014.9
20260905121846 24 23 1.6 3.2 0.00 0.00 0.00 91 1014.9
20260905121755 24 23 3.2 3.2 0.00 0.00 0.00 91 1014.9
20260905121529 23 23 1.6 3.2 0.00 0.00 0.00 91 1014.9
20260905121421 23 23 1.6 4.8 0.00 0.00 0.00 91 1014.8
20260905121348 23 23 0.0 4.8 0.00 0.00 0.00 91 1014.8
20260905121233 23 23 0.0 4.8 0.00 0.00 0.00 91 1014.9
20260905121121 23 23 0.0 4.8 0.00 0.00 0.00 91 1014.8
20260905121047 23 23 1.6 4.8 0.00 0.00 0.00 91 1014.8
20260905120933 23 23 0.0 4.8 0.00 0.00 0.00 91 1014.8
20260905120825 23 23 1.6 4.8 0.00 0.00 0.00 92 1014.8
20260905120734 23 23 1.6 4.8 0.00 0.00 0.00 91 1014.8
20260905120621 23 23 1.6 4.8 0.00 0.00 0.00 92 1014.7
20260905120526 23 23 1.6 4.8 0.00 0.00 0.00 92 1014.7
20260905120434 23 23 1.6 4.8 0.00 0.00 0.00 92 1014.7
20260905120400 23 23 1.6 4.8 0.00 0.00 0.00 92 1014.7
20260905120313 23 23 1.6 3.2 0.00 0.00 0.00 92 1014.7
20260905120025 23 23 0.0 3.2 0.00 0.00 0.00 92 1014.7
20260905115931 23 23 0.0 1.6 0.00 0.00 0.00 92 1014.6
20260905115858 23 23 0.0 3.2 0.00 0.00 0.00 92 1014.6
20260905115724 23 23 0.0 3.2 0.00 0.00 0.00 92 1014.7
20260905115631 23 23 0.0 3.2 0.00 0.00 0.00 92 1014.6
20260905115522 23 23 0.0 3.2 0.00 0.00 0.00 91 1014.6
20260905115428 23 23 0.0 4.8 0.00 0.00 0.00 91 1014.6
20260905115336 23 23 0.0 4.8 0.00 0.00 0.00 91 1014.6
20260905115222 23 23 0.0 4.8 0.00 0.00 0.00 91 1014.6
20260905115129 23 23 1.6 4.8 0.00 0.00 0.00 91 1014.5
20260905115020 23 23 1.6 4.8 0.00 0.00 0.00 91 1014.5
20260905114947 23 23 1.6 4.8 0.00 0.00 0.00 91 1014.5
20260905114853 23 23 1.6 6.4 0.00 0.00 0.00 92 1014.5
20260905114801 23 23 3.2 6.4 0.00 0.00 0.00 92 1014.5
20260905114534 23 23 3.2 6.4 0.00 0.00 0.00 92 1014.4
20260905114426 23 23 3.2 6.4 0.00 0.00 0.00 92 1014.4
20260905114333 23 23 3.2 6.4 0.00 0.00 0.00 91 1014.4
20260905114220 23 23 3.2 6.4 0.00 0.00 0.00 91 1014.4
20260905114126 23 23 3.2 6.4 0.00 0.00 0.00 91 1014.4
20260905114033 23 23 3.2 6.4 0.00 0.00 0.00 92 1014.3
20260905113920 23 23 3.2 4.8 0.00 0.00 0.00 92 1014.3
20260905113832 23 23 4.8 4.8 0.00 0.00 0.00 92 1014.3
20260905113720 23 23 3.2 4.8 0.00 0.00 0.00 91 1014.3
20260905113627 23 23 1.6 4.8 0.00 0.00 0.00 91 1014.3
20260905113535 23 23 0.0 0.0 0.00 0.00 0.00 91 1014.2
20260905113424 23 23 0.0 0.0 0.00 0.00 0.00 92 1014.2
20260905113305 23 23 0.0 0.0 0.00 0.00 0.00 92 1014.3
20260905113037 23 23 0.0 0.0 0.00 0.00 0.00 91 1014.2
20260905112923 23 23 0.0 0.0 0.00 0.00 0.00 92 1014.1
20260905112830 23 23 0.0 0.0 0.00 0.00 0.00 92 1014.3
20260905112720 23 23 0.0 0.0 0.00 0.00 0.00 92 1014.2
20260905112627 23 23 0.0 0.0 0.00 0.00 0.00 92 1014.2
20260905112554 23 23 0.0 0.0 0.00 0.00 0.00 92 1014.2
20260905112419 23 23 0.0 0.0 0.00 0.00 0.00 92 1014.2
20260905112325 23 23 0.0 0.0 0.00 0.00 0.00 91 1014.1
20260905112232 23 23 0.0 0.0 0.00 0.00 0.00 91 1014.2
20260905112123 23 23 0.0 0.0 0.00 0.00 0.00 91 1014.1
20260905112030 23 23 0.0 0.0 0.00 0.00 0.00 91 1014.1
20260905111958 23 23 0.0 0.0 0.00 0.00 0.00 91 1014.0
20260905111823 23 23 0.0 0.0 0.00 0.00 0.00 91 1014.0
20260905111757 23 23 0.0 0.0 0.00 0.00 0.00 91 1014.0
20260905111529 23 23 0.0 0.0 0.00 0.00 0.00 91 1013.9
20260905111457 23 23 0.0 0.0 0.00 0.00 0.00 91 1014.0
20260905111322 23 23 0.0 0.0 0.00 0.00 0.00 91 1013.9
20260905111228 23 23 0.0 0.0 0.00 0.00 0.00 91 1014.0
20260905111135 23 23 0.0 0.0 0.00 0.00 0.00 91 1013.9
20260905111023 23 23 0.0 0.0 0.00 0.00 0.00 91 1013.9
20260905110950 23 23 0.0 0.0 0.00 0.00 0.00 91 1013.8
20260905110820 23 23 0.0 0.0 0.00 0.00 0.00 91 1013.8
20260905110728 23 23 0.0 0.0 0.00 0.00 0.00 91 1013.8
20260905110634 23 23 0.0 0.0 0.00 0.00 0.00 91 1013.8
20260905110523 23 23 0.0 0.0 0.00 0.00 0.00 91 1013.9
20260905110431 23 23 0.0 0.0 0.00 0.00 0.00 91 1013.7
20260905110322 23 23 0.0 0.0 0.00 0.00 0.00 91 1013.7
20260905110252 23 23 0.0 0.0 0.00 0.00 0.00 91 1013.7
20260905110025 23 23 0.0 0.0 0.00 0.00 0.00 91 1013.7
20260905105932 23 23 0.0 0.0 0.00 0.00 0.00 91 1013.7
20260905105822 23 23 0.0 0.0 0.00 0.00 0.00 91 1013.7
20260905105730 23 23 0.0 0.0 0.00 0.00 0.00 91 1013.7
20260905105618 23 23 0.0 0.0 0.00 0.00 0.00 91 1013.6
20260905105525 23 23 0.0 0.0 0.00 0.00 0.00 91 1013.6
20260905105430 23 23 0.0 0.0 0.00 0.00 0.00 91 1013.6
20260905105319 23 23 0.0 0.0 0.00 0.00 0.00 91 1013.7
20260905105231 23 23 0.0 0.0 0.00 0.00 0.00 91 1013.6
20260905105119 23 23 0.0 0.0 0.00 0.00 0.00 91 1013.7
20260905105045 23 23 0.0 0.0 0.00 0.00 0.00 91 1013.7
20260905104932 23 23 0.0 0.0 0.00 0.00 0.00 91 1013.7
20260905104820 23 23 0.0 0.0 0.00 0.00 0.00 91 1013.7
20260905104755 23 23 0.0 0.0 0.00 0.00 0.00 91 1013.7
20260905104529 23 23 0.0 0.0 0.00 0.00 0.00 91 1013.7
20260905104435 23 23 0.0 0.0 0.00 0.00 0.00 91 1013.7
20260905104322 23 23 0.0 0.0 0.00 0.00 0.00 91 1013.6
20260905104229 23 23 0.0 0.0 0.00 0.00 0.00 91 1013.7
20260905104121 23 23 0.0 0.0 0.00 0.00 0.00 91 1013.6
20260905104029 23 23 0.0 0.0 0.00 0.00 0.00 91 1013.6
20260905103935 23 23 0.0 0.0 0.00 0.00 0.00 91 1013.6
20260905103841 23 23 0.0 0.0 0.00 0.00 0.00 91 1013.6
20260905103728 23 23 0.0 0.0 0.00 0.00 0.00 90 1013.6
20260905103634 23 23 0.0 0.0 0.00 0.00 0.00 90 1013.6
20260905103526 23 23 0.0 0.0 0.00 0.00 0.00 90 1013.6
20260905103432 23 23 0.0 0.0 0.00 0.00 0.00 90 1013.5
20260905103401 23 23 0.0 0.0 0.00 0.00 0.00 90 1013.5
20260905103310 23 23 0.0 0.0 0.00 0.00 0.00 91 1013.5
20260905103024 23 23 0.0 1.6 0.00 0.00 0.00 91 1013.5
20260905102936 23 23 0.0 3.2 0.00 0.00 0.00 90 1013.5
20260905102821 23 23 0.0 3.2 0.00 0.00 0.00 90 1013.4
20260905102728 23 23 0.0 3.2 0.00 0.00 0.00 90 1013.4
20260905102635 23 23 0.0 3.2 0.00 0.00 0.00 90 1013.3
20260905102523 23 23 0.0 3.2 0.00 0.00 0.00 90 1013.3
20260905102451 23 23 0.0 3.2 0.00 0.00 0.00 90 1013.3
20260905102321 23 23 0.0 3.2 0.00 0.00 0.00 90 1013.4
20260905102228 23 23 1.6 3.2 0.00 0.00 0.00 90 1013.2
20260905102135 23 23 1.6 3.2 0.00 0.00 0.00 90 1013.3
20260905102021 23 23 1.6 3.2 0.00 0.00 0.00 90 1013.3
20260905101948 23 23 1.6 3.2 0.00 0.00 0.00 90 1013.3
20260905101808 23 23 1.6 3.2 0.00 0.00 0.00 90 1013.3
20260905101521 23 23 1.6 3.2 0.00 0.00 0.00 91 1013.3
20260905101429 23 23 1.6 3.2 0.00 0.00 0.00 90 1013.3
20260905101317 23 23 1.6 3.2 0.00 0.00 0.00 90 1013.3
20260905101244 23 23 1.6 3.2 0.00 0.00 0.00 90 1013.3
20260905101133 23 23 1.6 3.2 0.00 0.00 0.00 91 1013.3
20260905101021 23 23 1.6 3.2 0.00 0.00 0.00 91 1013.3
20260905100926 23 23 1.6 3.2 0.00 0.00 0.00 91 1013.3
20260905100854 23 23 1.6 3.2 0.00 0.00 0.00 91 1013.2
20260905100739 23 23 1.6 3.2 0.00 0.00 0.00 91 1013.2
20260905100623 23 23 1.6 3.2 0.00 0.00 0.00 91 1013.3
20260905100531 23 23 1.6 3.2 0.00 0.00 0.00 91 1013.2
20260905100422 23 23 1.6 3.2 0.00 0.00 0.00 91 1013.3
20260905100329 23 23 1.6 3.2 0.00 0.00 0.00 91 1013.2
20260905100259 23 23 3.2 3.2 0.00 0.00 0.00 91 1013.2
20260905100034 23 23 3.2 3.2 0.00 0.00 0.00 91 1013.3
20260905095925 23 23 3.2 3.2 0.00 0.00 0.00 91 1013.3
20260905095832 23 23 1.6 3.2 0.00 0.00 0.00 91 1013.3
20260905095720 23 23 0.0 3.2 0.00 0.00 0.00 91 1013.3
20260905095628 23 23 0.0 0.0 0.00 0.00 0.00 92 1013.3
20260905095536 23 23 0.0 0.0 0.00 0.00 0.00 92 1013.3
20260905095422 23 23 0.0 0.0 0.00 0.00 0.00 92 1013.3
20260905095355 23 23 0.0 0.0 0.00 0.00 0.00 92 1013.3
20260905095221 23 23 0.0 0.0 0.00 0.00 0.00 91 1013.3
20260905095127 23 23 0.0 0.0 0.00 0.00 0.00 91 1013.2
20260905095034 23 23 0.0 0.0 0.00 0.00 0.00 92 1013.2
20260905094921 23 23 0.0 0.0 0.00 0.00 0.00 92 1013.3
20260905094850 23 23 0.0 1.6 0.00 0.00 0.00 92 1013.3
20260905094822 23 23 0.0 1.6 0.00 0.00 0.00 92 1013.3
20260905094533 23 23 0.0 1.6 0.00 0.00 0.00 92 1013.4
20260905094421 23 23 0.0 1.6 0.00 0.00 0.00 92 1013.4
20260905094329 23 23 0.0 1.6 0.00 0.00 0.00 91 1013.4
20260905094220 23 23 0.0 1.6 0.00 0.00 0.00 91 1013.3
20260905094127 23 23 0.0 1.6 0.00 0.00 0.00 91 1013.4
20260905094033 23 23 1.6 1.6 0.00 0.00 0.00 91 1013.3
20260905093921 23 23 0.0 1.6 0.00 0.00 0.00 91 1013.3
20260905093848 23 23 0.0 1.6 0.00 0.00 0.00 91 1013.2
20260905093733 23 23 0.0 1.6 0.00 0.00 0.00 91 1013.2
20260905093619 23 23 0.0 1.6 0.00 0.00 0.00 91 1013.2
20260905093528 23 23 0.0 1.6 0.00 0.00 0.00 91 1013.2
20260905093435 23 23 0.0 1.6 0.00 0.00 0.00 91 1013.2
20260905093323 23 23 0.0 1.6 0.00 0.00 0.00 91 1013.2
20260905093251 23 23 0.0 1.6 0.00 0.00 0.00 91 1013.2
20260905093029 23 23 0.0 3.2 0.00 0.00 0.00 91 1013.2
20260905092936 23 23 0.0 4.8 0.00 0.00 0.00 91 1013.2
20260905092843 23 23 0.0 4.8 0.00 0.00 0.00 90 1013.1
20260905092728 23 23 0.0 4.8 0.00 0.00 0.00 90 1013.2
20260905092635 23 23 0.0 4.8 0.00 0.00 0.00 91 1013.2
20260905092522 23 23 0.0 4.8 0.00 0.00 0.00 91 1013.3
20260905092433 23 23 0.0 4.8 0.00 0.00 0.00 91 1013.2
20260905092320 23 23 1.6 4.8 0.00 0.00 0.00 91 1013.2
20260905092226 23 23 3.2 4.8 0.00 0.00 0.00 91 1013.2
20260905092133 23 23 3.2 4.8 0.00 0.00 0.00 91 1013.2
20260905092040 23 23 3.2 4.8 0.00 0.00 0.00 91 1013.1
20260905091925 23 23 3.2 6.4 0.00 0.00 0.00 91 1013.1
20260905091837 23 23 3.2 6.4 0.00 0.00 0.00 91 1013.1
20260905091807 23 23 3.2 6.4 0.00 0.00 0.00 90 1013.1
20260905091520 23 23 3.2 6.4 0.00 0.00 0.00 90 1013.2
20260905091447 23 23 3.2 6.4 0.00 0.00 0.00 91 1013.1
20260905091333 23 23 3.2 6.4 0.00 0.00 0.00 91 1013.2
20260905091245 23 23 3.2 6.4 0.00 0.00 0.00 91 1013.2
20260905091131 23 5 4.8 6.4 0.00 0.00 0.00 90 1013.2
20260905091019 23 5 4.8 6.4 0.00 0.00 0.00 90 1013.2
20260905090945 23 5 4.8 6.4 0.00 0.00 0.00 90 1013.2
20260905090831 23 355 4.8 6.4 0.00 0.00 0.00 90 1013.1
20260905090718 23 360 4.8 6.4 0.00 0.00 0.00 90 1013.2
20260905090645 23 360 4.8 6.4 0.00 0.00 0.00 90 1013.1
20260905090535 23 360 4.8 6.4 0.00 0.00 0.00 90 1013.1
20260905090422 24 360 3.2 4.8 0.00 0.00 0.00 89 1013.1
20260905090329 24 360 1.6 4.8 0.00 0.00 0.00 89 1013.1
20260905090259 24 360 1.6 3.2 0.00 0.00 0.00 89 1013.1
20260905090037 24 360 1.6 1.6 0.00 0.00 0.00 89 1013.0
20260905085923 24 360 1.6 1.6 0.00 0.00 0.00 90 1013.1
20260905085830 24 360 1.6 1.6 0.00 0.00 0.00 90 1013.1
20260905085718 24 360 1.6 1.6 0.00 0.00 0.00 90 1013.1
20260905085646 24 360 1.6 1.6 0.00 0.00 0.00 90 1013.1
20260905085534 24 360 1.6 1.6 0.00 0.00 0.00 90 1013.1
20260905085444 24 360 0.0 1.6 0.00 0.00 0.00 90 1013.1
20260905085332 24 360 0.0 1.6 0.00 0.00 0.00 90 1013.1
20260905085219 24 360 0.0 0.0 0.00 0.00 0.00 90 1013.1
20260905085127 24 360 0.0 0.0 0.00 0.00 0.00 90 1013.1
20260905085033 24 360 0.0 0.0 0.00 0.00 0.00 90 1013.2
20260905084920 24 360 0.0 0.0 0.00 0.00 0.00 90 1013.2
20260905084831 24 360 0.0 0.0 0.00 0.00 0.00 90 1013.2
20260905084802 24 360 0.0 0.0 0.00 0.00 0.00 91 1013.2
20260905084535 24 360 0.0 0.0 0.00 0.00 0.00 91 1013.1
20260905084423 24 360 0.0 0.0 0.00 0.00 0.00 91 1013.1
20260905084333 24 360 0.0 0.0 0.00 0.00 0.00 90 1013.1
20260905084219 24 360 0.0 0.0 0.00 0.00 0.00 90 1013.1
20260905084126 24 360 0.0 0.0 0.00 0.00 0.00 90 1013.0
20260905084053 24 360 0.0 0.0 0.00 0.00 0.00 90 1013.1
20260905083918 24 360 0.0 0.0 0.00 0.00 0.00 90 1013.0
20260905083824 24 360 0.0 0.0 0.00 0.00 0.00 90 1013.0
20260905083736 24 360 0.0 0.0 0.00 0.00 0.00 89 1013.1
20260905083622 24 360 0.0 0.0 0.00 0.00 0.00 89 1013.1
20260905083530 24 360 0.0 0.0 0.00 0.00 0.00 89 1013.0
20260905083437 24 360 0.0 0.0 0.00 0.00 0.00 89 1013.1
20260905083323 24 360 0.0 0.0 0.00 0.00 0.00 89 1013.0
20260905083259 24 360 0.0 0.0 0.00 0.00 0.00 89 1013.0
20260905083052 24 360 0.0 0.0 0.00 0.00 0.00 89 1013.2
20260905082917 24 360 0.0 0.0 0.00 0.00 0.00 89 1013.1
20260905082825 24 360 0.0 0.0 0.00 0.00 0.00 89 1013.2
20260905082734 24 360 0.0 0.0 0.00 0.00 0.00 89 1013.1
20260905082626 24 360 0.0 0.0 0.00 0.00 0.00 89 1013.2
20260905082533 24 360 0.0 0.0 0.00 0.00 0.00 90 1013.1
20260905082420 24 360 0.0 0.0 0.00 0.00 0.00 90 1013.1
20260905082347 24 360 0.0 0.0 0.00 0.00 0.00 90 1013.1
20260905082233 24 360 0.0 0.0 0.00 0.00 0.00 90 1013.1
20260905082139 24 360 0.0 0.0 0.00 0.00 0.00 90 1013.1
20260905082026 24 360 0.0 0.0 0.00 0.00 0.00 90 1013.1
20260905081958 24 360 0.0 0.0 0.00 0.00 0.00 90 1013.1
20260905081844 24 360 0.0 1.6 0.00 0.00 0.00 90 1013.0
20260905081754 24 360 0.0 3.2 0.00 0.00 0.00 90 1013.0
20260905081528 24 360 0.0 3.2 0.00 0.00 0.00 90 1013.1
20260905081434 24 360 0.0 3.2 0.00 0.00 0.00 89 1012.9
20260905081326 24 360 0.0 3.2 0.00 0.00 0.00 89 1013.0
20260905081233 24 360 0.0 4.8 0.00 0.00 0.00 89 1013.1
20260905081119 24 360 0.0 4.8 0.00 0.00 0.00 89 1013.0
20260905081027 24 360 1.6 4.8 0.00 0.00 0.00 89 1013.0
20260905080933 24 360 3.2 4.8 0.00 0.00 0.00 88 1013.0
20260905080825 24 360 1.6 4.8 0.00 0.00 0.00 88 1013.0
20260905080733 24 360 3.2 4.8 0.00 0.00 0.00 88 1013.0
20260905080620 24 360 3.2 4.8 0.00 0.00 0.00 88 1013.0
20260905080526 24 360 3.2 4.8 0.00 0.00 0.00 88 1013.0
20260905080434 24 360 3.2 4.8 0.00 0.00 0.00 88 1013.0
20260905080341 24 360 3.2 4.8 0.00 0.00 0.00 88 1013.1
20260905080254 24 360 3.2 4.8 0.00 0.00 0.00 88 1013.1
20260905080026 24 360 3.2 4.8 0.00 0.00 0.00 88 1012.9
20260905075952 24 360 3.2 4.8 0.00 0.00 0.00 88 1012.9
20260905075817 24 360 3.2 4.8 0.00 0.00 0.00 88 1012.9
20260905075725 24 360 1.6 3.2 0.00 0.00 0.00 89 1012.9
20260905075636 24 360 3.2 3.2 0.00 0.00 0.00 88 1013.0
20260905075523 24 360 3.2 3.2 0.00 0.00 0.00 88 1012.9
20260905075430 24 360 1.6 3.2 0.00 0.00 0.00 88 1012.8
20260905075357 24 360 1.6 3.2 0.00 0.00 0.00 88 1012.8
20260905075242 24 360 1.6 3.2 0.00 0.00 0.00 88 1012.8
20260905075149 24 360 1.6 3.2 0.00 0.00 0.00 88 1012.8
20260905075034 24 360 1.6 1.6 0.00 0.00 0.00 88 1012.8
20260905074924 24 360 0.0 1.6 0.00 0.00 0.00 88 1012.8
20260905074852 24 360 0.0 0.0 0.00 0.00 0.00 88 1012.8
20260905074822 24 360 0.0 0.0 0.00 0.00 0.00 89 1012.8
20260905074555 24 360 0.0 0.0 0.00 0.00 0.00 89 1012.8
20260905074420 24 360 0.0 0.0 0.00 0.00 0.00 89 1012.8
20260905074326 24 360 0.0 0.0 0.00 0.00 0.00 89 1012.8
20260905074236 24 360 0.0 0.0 0.00 0.00 0.00 89 1012.8
20260905074123 24 360 0.0 0.0 0.00 0.00 0.00 89 1012.8
20260905074031 24 360 0.0 0.0 0.00 0.00 0.00 88 1012.8
20260905073917 24 360 0.0 1.6 0.00 0.00 0.00 88 1012.8
20260905073823 24 360 0.0 1.6 0.00 0.00 0.00 88 1012.7
20260905073751 24 360 0.0 1.6 0.00 0.00 0.00 88 1012.8
20260905073622 24 360 0.0 1.6 0.00 0.00 0.00 88 1012.8
20260905073530 24 360 0.0 1.6 0.00 0.00 0.00 88 1012.9
20260905073436 24 360 0.0 1.6 0.00 0.00 0.00 88 1012.8
20260905073342 24 360 0.0 1.6 0.00 0.00 0.00 87 1012.9
20260905073318 24 360 0.0 3.2 0.00 0.00 0.00 87 1012.9
20260905073029 24 360 0.0 3.2 0.00 0.00 0.00 87 1012.8
20260905072936 25 360 1.6 3.2 0.00 0.00 0.00 88 1012.9
20260905072823 25 360 1.6 3.2 0.00 0.00 0.00 88 1012.9
20260905072750 25 360 1.6 3.2 0.00 0.00 0.00 88 1012.9
20260905072637 25 360 1.6 3.2 0.00 0.00 0.00 88 1012.9
20260905072527 25 360 1.6 3.2 0.00 0.00 0.00 88 1012.8
20260905072433 25 360 1.6 3.2 0.00 0.00 0.00 88 1012.9
20260905072320 25 360 1.6 3.2 0.00 0.00 0.00 88 1012.9
20260905072229 25 360 1.6 3.2 0.00 0.00 0.00 88 1012.8
20260905072137 25 360 1.6 3.2 0.00 0.00 0.00 88 1012.9
20260905072023 25 360 1.6 3.2 0.00 0.00 0.00 88 1012.9
20260905071933 25 360 1.6 3.2 0.00 0.00 0.00 88 1012.9
20260905071811 25 360 1.6 3.2 0.00 0.00 0.00 88 1012.9
20260905071524 25 360 1.6 3.2 0.00 0.00 0.00 88 1012.8
20260905071435 25 360 1.6 3.2 0.00 0.00 0.00 88 1012.9
20260905071343 25 360 1.6 3.2 0.00 0.00 0.00 88 1012.9
20260905071250 25 360 1.6 3.2 0.00 0.00 0.00 87 1012.9
20260905071136 25 360 1.6 3.2 0.00 0.00 0.00 87 1012.9
20260905071023 25 360 1.6 3.2 0.00 0.00 0.00 87 1012.9
20260905070949 25 360 1.6 3.2 0.00 0.00 0.00 87 1013.0
20260905070835 25 360 1.6 3.2 0.00 0.00 0.00 87 1013.1
20260905070725 25 360 1.6 4.8 0.00 0.00 0.00 87 1013.0
20260905070631 25 360 1.6 4.8 0.00 0.00 0.00 87 1013.1
20260905070536 25 360 1.6 4.8 0.00 0.00 0.00 87 1013.1
20260905070443 25 360 1.6 4.8 0.00 0.00 0.00 87 1013.2
20260905070349 25 360 1.6 4.8 0.00 0.00 0.00 87 1013.2
20260905070259 25 360 1.6 4.8 0.00 0.00 0.00 86 1013.2
20260905070036 25 360 3.2 4.8 0.00 0.00 0.00 86 1013.3
20260905065923 25 360 3.2 4.8 0.00 0.00 0.00 86 1013.3
20260905065850 25 360 3.2 4.8 0.00 0.00 0.00 86 1013.3
20260905065736 25 360 3.2 4.8 0.00 0.00 0.00 86 1013.2
20260905065622 25 360 3.2 4.8 0.00 0.00 0.00 86 1013.2
20260905065529 25 360 1.6 3.2 0.00 0.00 0.00 86 1013.2
20260905065419 25 360 1.6 3.2 0.00 0.00 0.00 86 1013.2
20260905065346 25 360 0.0 3.2 0.00 0.00 0.00 85 1013.2
20260905065231 25 360 0.0 3.2 0.00 0.00 0.00 85 1013.2
20260905065137 25 360 0.0 3.2 0.00 0.00 0.00 85 1013.3
20260905065025 25 360 0.0 3.2 0.00 0.00 0.00 85 1013.3
20260905064932 25 360 1.6 3.2 0.00 0.00 0.00 85 1013.4
20260905064823 25 360 1.6 4.8 0.00 0.00 0.00 85 1013.4
20260905064754 25 360 1.6 4.8 0.00 0.00 0.00 85 1013.4
20260905064525 25 360 1.6 4.8 0.00 0.00 0.00 85 1013.5
20260905064434 25 360 1.6 4.8 0.00 0.00 0.00 85 1013.5
20260905064325 25 360 1.6 4.8 0.00 0.00 0.00 84 1013.4
20260905064232 25 360 1.6 4.8 0.00 0.00 0.00 84 1013.5
20260905064119 25 360 3.2 4.8 0.00 0.00 0.00 84 1013.4
20260905064025 25 360 3.2 4.8 0.00 0.00 0.00 84 1013.4
20260905063932 25 360 1.6 4.8 0.00 0.00 0.00 84 1013.4
20260905063823 25 360 1.6 4.8 0.00 0.00 0.00 85 1013.5
20260905063751 25 360 1.6 4.8 0.00 0.00 0.00 85 1013.4
20260905063634 25 360 1.6 4.8 0.00 0.00 0.00 85 1013.5
20260905063523 25 355 1.6 4.8 0.00 0.00 0.00 85 1013.4
20260905063450 25 355 3.2 4.8 0.00 0.00 0.00 85 1013.5
20260905063335 25 355 3.2 4.8 0.00 0.00 0.00 85 1013.5
20260905063310 25 355 3.2 4.8 0.00 0.00 0.00 85 1013.5
20260905063043 25 42 3.2 4.8 0.00 0.00 0.00 85 1013.5
20260905062929 25 42 3.2 4.8 0.00 0.00 0.00 86 1013.5
20260905062837 25 42 3.2 3.2 0.00 0.00 0.00 86 1013.5
20260905062723 25 42 1.6 3.2 0.00 0.00 0.00 86 1013.6
20260905062630 25 42 1.6 3.2 0.00 0.00 0.00 86 1013.5
20260905062521 25 42 1.6 4.8 0.00 0.00 0.00 86 1013.5
20260905062428 25 42 1.6 4.8 0.00 0.00 0.00 86 1013.6
20260905062335 25 42 1.6 4.8 0.00 0.00 0.00 86 1013.5
20260905062222 25 42 1.6 4.8 0.00 0.00 0.00 86 1013.5
20260905062130 25 42 1.6 4.8 0.00 0.00 0.00 86 1013.5
20260905062021 25 42 1.6 4.8 0.00 0.00 0.00 86 1013.5
20260905061929 25 42 1.6 4.8 0.00 0.00 0.00 86 1013.6
20260905061857 25 42 3.2 4.8 0.00 0.00 0.00 86 1013.5
20260905061807 25 42 3.2 4.8 0.00 0.00 0.00 85 1013.5
20260905061519 25 48 1.6 4.8 0.00 0.00 0.00 85 1013.6
20260905061431 25 360 1.6 4.8 0.00 0.00 0.00 85 1013.6
20260905061320 25 360 3.2 4.8 0.00 0.00 0.00 85 1013.6
20260905061226 25 5 3.2 4.8 0.00 0.00 0.00 85 1013.6
20260905061134 25 9 3.2 4.8 0.00 0.00 0.00 85 1013.6
20260905061020 25 9 3.2 4.8 0.00 0.00 0.00 86 1013.7
20260905060927 25 9 3.2 4.8 0.00 0.00 0.00 86 1013.6
20260905060819 25 9 3.2 4.8 0.00 0.00 0.00 86 1013.7
20260905060726 25 9 3.2 4.8 0.00 0.00 0.00 86 1013.6
20260905060633 25 13 3.2 4.8 0.00 0.00 0.00 85 1013.7
20260905060520 25 24 3.2 4.8 0.00 0.00 0.00 86 1013.7
20260905060427 25 17 3.2 4.8 0.00 0.00 0.00 86 1013.7
20260905060339 25 17 3.2 4.8 0.00 0.00 0.00 86 1013.6
20260905060309 25 17 3.2 4.8 0.00 0.00 0.00 85 1013.6
20260905060024 25 17 3.2 4.8 0.00 0.00 0.00 85 1013.7
20260905055932 25 17 3.2 4.8 0.00 0.00 0.00 85 1013.7
20260905055821 25 17 3.2 4.8 0.00 0.00 0.00 85 1013.7
20260905055730 25 17 3.2 4.8 0.00 0.00 0.00 85 1013.7
20260905055636 25 17 1.6 4.8 0.00 0.00 0.00 84 1013.7
20260905055544 25 17 1.6 4.8 0.00 0.00 0.00 84 1013.7
20260905055429 25 17 1.6 4.8 0.00 0.00 0.00 84 1013.7
20260905055357 25 17 1.6 4.8 0.00 0.00 0.00 85 1013.7
20260905055243 25 17 1.6 4.8 0.00 0.00 0.00 85 1013.6
20260905055128 25 17 3.2 4.8 0.00 0.00 0.00 85 1013.6
20260905055019 25 17 3.2 4.8 0.00 0.00 0.00 85 1013.7
20260905054925 25 17 3.2 4.8 0.00 0.00 0.00 85 1013.6
20260905054852 25 17 3.2 4.8 0.00 0.00 0.00 85 1013.6
20260905054821 25 17 3.2 4.8 0.00 0.00 0.00 85 1013.6
20260905054533 25 17 3.2 4.8 0.00 0.00 0.00 85 1013.8
20260905054424 25 17 3.2 4.8 0.00 0.00 0.00 85 1013.8
20260905054332 25 17 1.6 4.8 0.00 0.00 0.00 85 1013.7
20260905054239 25 17 1.6 6.4 0.00 0.00 0.00 85 1013.7
20260905054125 25 17 1.6 6.4 0.00 0.00 0.00 85 1013.7
20260905054053 25 17 1.6 6.4 0.00 0.00 0.00 85 1013.7
20260905053939 25 17 1.6 6.4 0.00 0.00 0.00 85 1013.8
20260905053825 25 17 3.2 6.4 0.00 0.00 0.00 85 1013.7
20260905053735 25 17 3.2 6.4 0.00 0.00 0.00 85 1013.7
20260905053622 25 17 3.2 6.4 0.00 0.00 0.00 85 1013.6
20260905053529 25 17 4.8 6.4 0.00 0.00 0.00 85 1013.5
20260905053436 25 17 4.8 6.4 0.00 0.00 0.00 84 1013.7
20260905053344 25 17 3.2 4.8 0.00 0.00 0.00 83 1013.6
20260905053257 25 17 3.2 4.8 0.00 0.00 0.00 83 1013.6
20260905053031 25 17 3.2 4.8 0.00 0.00 0.00 83 1013.5
20260905052937 25 17 3.2 4.8 0.00 0.00 0.00 84 1013.5
20260905052824 25 17 3.2 3.2 0.00 0.00 0.00 84 1013.7
20260905052752 25 17 1.6 3.2 0.00 0.00 0.00 84 1013.6
20260905052620 25 17 0.0 3.2 0.00 0.00 0.00 84 1013.6
20260905052527 25 17 0.0 3.2 0.00 0.00 0.00 84 1013.6
20260905052433 25 17 0.0 3.2 0.00 0.00 0.00 84 1013.5
20260905052319 25 17 0.0 3.2 0.00 0.00 0.00 84 1013.7
20260905052226 25 17 1.6 3.2 0.00 0.00 0.00 84 1013.5
20260905052133 25 17 1.6 3.2 0.00 0.00 0.00 84 1013.5
20260905052022 25 17 0.0 3.2 0.00 0.00 0.00 84 1013.5
20260905051930 25 17 0.0 1.6 0.00 0.00 0.00 84 1013.5
20260905051828 25 17 0.0 1.6 0.00 0.00 0.00 84 1013.5
20260905051540 25 17 0.0 1.6 0.00 0.00 0.00 84 1013.5
20260905051446 25 17 0.0 1.6 0.00 0.00 0.00 84 1013.6
20260905051336 25 17 0.0 1.6 0.00 0.00 0.00 84 1013.5
20260905051243 25 17 0.0 1.6 0.00 0.00 0.00 84 1013.7
20260905051130 25 17 0.0 0.0 0.00 0.00 0.00 84 1013.7
20260905051019 25 17 0.0 0.0 0.00 0.00 0.00 85 1013.7
20260905050925 25 17 0.0 1.6 0.00 0.00 0.00 84 1013.7
20260905050853 25 17 0.0 1.6 0.00 0.00 0.00 85 1013.7
20260905050721 25 17 0.0 1.6 0.00 0.00 0.00 85 1013.7
20260905050628 25 17 0.0 1.6 0.00 0.00 0.00 85 1013.6
20260905050535 25 17 0.0 1.6 0.00 0.00 0.00 85 1013.7
20260905050421 25 17 0.0 3.2 0.00 0.00 0.00 84 1013.6
20260905050323 25 17 0.0 3.2 0.00 0.00 0.00 84 1013.7
20260905050036 25 17 0.0 3.2 0.00 0.00 0.00 85 1013.7
20260905045923 25 17 0.0 4.8 0.00 0.00 0.00 85 1013.7
20260905045831 25 17 0.0 4.8 0.00 0.00 0.00 85 1013.8
20260905045718 25 17 1.6 4.8 0.00 0.00 0.00 85 1013.8
20260905045630 25 17 1.6 4.8 0.00 0.00 0.00 85 1013.8
20260905045537 25 17 1.6 4.8 0.00 0.00 0.00 85 1013.8
20260905045424 25 17 1.6 4.8 0.00 0.00 0.00 84 1013.7
20260905045332 25 17 1.6 4.8 0.00 0.00 0.00 84 1013.7
20260905045219 25 17 1.6 4.8 0.00 0.00 0.00 84 1013.7
20260905045127 25 17 1.6 4.8 0.00 0.00 0.00 84 1013.7
20260905045058 25 17 3.2 4.8 0.00 0.00 0.00 84 1013.8
20260905044924 25 17 3.2 4.8 0.00 0.00 0.00 84 1013.8
20260905044851 25 17 3.2 4.8 0.00 0.00 0.00 84 1013.8
20260905044800 25 17 3.2 4.8 0.00 0.00 0.00 84 1013.8
20260905044532 25 17 3.2 4.8 0.00 0.00 0.00 84 1013.7
20260905044423 25 17 3.2 4.8 0.00 0.00 0.00 84 1013.7
20260905044329 25 17 3.2 4.8 0.00 0.00 0.00 83 1013.8
20260905044236 25 17 3.2 4.8 0.00 0.00 0.00 82 1013.8
20260905044121 25 17 3.2 4.8 0.00 0.00 0.00 82 1013.8
20260905044029 25 17 3.2 4.8 0.00 0.00 0.00 83 1013.8
20260905043919 25 17 3.2 4.8 0.00 0.00 0.00 82 1013.7
20260905043827 25 17 3.2 4.8 0.00 0.00 0.00 82 1013.7
20260905043733 25 17 1.6 3.2 0.00 0.00 0.00 82 1013.7
20260905043619 25 17 1.6 3.2 0.00 0.00 0.00 83 1013.7
20260905043547 26 17 1.6 3.2 0.00 0.00 0.00 83 1013.7
20260905043433 26 17 1.6 3.2 0.00 0.00 0.00 84 1013.7
20260905043323 26 17 1.6 3.2 0.00 0.00 0.00 84 1013.8
20260905043255 26 17 1.6 3.2 0.00 0.00 0.00 84 1013.8
20260905043028 26 17 1.6 3.2 0.00 0.00 0.00 83 1013.9
20260905042934 26 17 1.6 3.2 0.00 0.00 0.00 83 1013.9
20260905042822 26 17 1.6 3.2 0.00 0.00 0.00 83 1013.8
20260905042734 26 17 3.2 3.2 0.00 0.00 0.00 82 1013.9
20260905042641 26 17 1.6 3.2 0.00 0.00 0.00 82 1013.8
20260905042526 26 17 0.0 1.6 0.00 0.00 0.00 82 1013.8
20260905042432 26 17 0.0 0.0 0.00 0.00 0.00 84 1013.9
20260905042319 26 17 0.0 0.0 0.00 0.00 0.00 84 1013.8
20260905042226 26 17 0.0 0.0 0.00 0.00 0.00 83 1013.8
20260905042137 26 17 0.0 0.0 0.00 0.00 0.00 84 1013.9
20260905042044 26 17 0.0 0.0 0.00 0.00 0.00 84 1013.9
20260905041930 26 17 0.0 0.0 0.00 0.00 0.00 84 1013.8
20260905041837 26 17 0.0 0.0 0.00 0.00 0.00 84 1013.8
20260905041751 26 17 0.0 0.0 0.00 0.00 0.00 84 1013.9
20260905041524 26 17 0.0 0.0 0.00 0.00 0.00 84 1013.8
20260905041431 26 17 0.0 0.0 0.00 0.00 0.00 84 1013.8
20260905041338 26 17 0.0 0.0 0.00 0.00 0.00 84 1013.8
20260905041225 26 17 0.0 0.0 0.00 0.00 0.00 84 1013.8
20260905041132 26 17 0.0 0.0 0.00 0.00 0.00 84 1013.8
20260905041022 26 17 0.0 0.0 0.00 0.00 0.00 84 1013.7
20260905040930 26 17 0.0 0.0 0.00 0.00 0.00 83 1013.8
20260905040837 26 17 0.0 0.0 0.00 0.00 0.00 84 1013.8
20260905040724 26 17 0.0 0.0 0.00 0.00 0.00 84 1013.8
20260905040630 26 17 0.0 0.0 0.00 0.00 0.00 84 1013.8
20260905040536 26 17 0.0 1.6 0.00 0.00 0.00 84 1013.8
20260905040426 26 17 0.0 1.6 0.00 0.00 0.00 84 1013.9
20260905040305 26 17 0.0 3.2 0.00 0.00 0.00 84 1013.8
20260905040057 26 17 0.0 3.2 0.00 0.00 0.00 84 1013.8
20260905035924 26 17 0.0 3.2 0.00 0.00 0.00 84 1013.8
20260905035834 26 17 0.0 3.2 0.00 0.00 0.00 83 1013.9
20260905035722 26 17 1.6 3.2 0.00 0.00 0.00 83 1013.9
20260905035629 26 17 1.6 3.2 0.00 0.00 0.00 83 1013.9
20260905035534 26 17 1.6 3.2 0.00 0.00 0.00 83 1013.9
20260905035423 26 17 1.6 3.2 0.00 0.00 0.00 83 1013.9
20260905035333 26 17 1.6 3.2 0.00 0.00 0.00 83 1013.9
20260905035241 26 17 1.6 3.2 0.00 0.00 0.00 83 1013.8
20260905035127 26 17 1.6 3.2 0.00 0.00 0.00 83 1013.8
20260905035035 26 17 1.6 3.2 0.00 0.00 0.00 83 1013.9
20260905034942 26 17 0.0 1.6 0.00 0.00 0.00 83 1014.0
20260905034828 26 17 0.0 1.6 0.00 0.00 0.00 84 1013.9
20260905034803 26 17 0.0 0.0 0.00 0.00 0.00 84 1013.9
20260905034536 26 17 0.0 0.0 0.00 0.00 0.00 84 1013.9
20260905034421 26 17 0.0 0.0 0.00 0.00 0.00 84 1013.9
20260905034328 26 17 0.0 0.0 0.00 0.00 0.00 84 1013.9
20260905034235 26 17 0.0 0.0 0.00 0.00 0.00 83 1013.9
20260905034143 26 17 0.0 0.0 0.00 0.00 0.00 83 1014.0
20260905034034 26 17 0.0 0.0 0.00 0.00 0.00 83 1014.0
20260905033919 26 17 0.0 3.2 0.00 0.00 0.00 83 1014.0
20260905033825 26 17 0.0 3.2 0.00 0.00 0.00 83 1013.9
20260905033732 26 17 0.0 3.2 0.00 0.00 0.00 83 1014.0
20260905033620 26 17 0.0 3.2 0.00 0.00 0.00 83 1014.0
20260905033531 26 17 0.0 3.2 0.00 0.00 0.00 83 1014.0
20260905033437 26 17 0.0 3.2 0.00 0.00 0.00 83 1014.0
20260905033343 26 17 0.0 3.2 0.00 0.00 0.00 83 1014.0
20260905033311 26 17 1.6 3.2 0.00 0.00 0.00 84 1014.0
20260905033023 26 17 0.0 1.6 0.00 0.00 0.00 84 1013.9
20260905032934 26 17 0.0 1.6 0.00 0.00 0.00 83 1014.0
20260905032820 26 17 0.0 1.6 0.00 0.00 0.00 83 1014.0
20260905032747 26 17 0.0 1.6 0.00 0.00 0.00 83 1014.0
20260905032632 26 17 0.0 1.6 0.00 0.00 0.00 83 1014.1
20260905032518 26 17 0.0 1.6 0.00 0.00 0.00 83 1014.1
20260905032427 26 17 0.0 1.6 0.00 0.00 0.00 82 1014.1
20260905032337 26 17 0.0 1.6 0.00 0.00 0.00 83 1014.1
20260905032223 26 17 0.0 1.6 0.00 0.00 0.00 83 1014.1
20260905032131 26 17 0.0 1.6 0.00 0.00 0.00 83 1014.1
20260905032019 26 17 0.0 1.6 0.00 0.00 0.00 83 1014.1
20260905031925 26 17 0.0 1.6 0.00 0.00 0.00 83 1014.1
20260905031834 26 17 0.0 0.0 0.00 0.00 0.00 83 1014.1
20260905031804 26 17 0.0 0.0 0.00 0.00 0.00 83 1014.1
20260905031536 26 17 0.0 1.6 0.00 0.00 0.00 83 1014.1
20260905031423 26 17 0.0 1.6 0.00 0.00 0.00 82 1014.1
20260905031351 26 17 0.0 1.6 0.00 0.00 0.00 82 1014.1
20260905031219 27 17 0.0 1.6 0.00 0.00 0.00 82 1014.0
20260905031127 27 17 0.0 4.8 0.00 0.00 0.00 82 1014.1
20260905031034 26 17 0.0 4.8 0.00 0.00 0.00 82 1014.1
20260905030920 27 17 0.0 4.8 0.00 0.00 0.00 81 1014.1
20260905030827 27 17 0.0 4.8 0.00 0.00 0.00 81 1014.0
20260905030718 27 17 0.0 4.8 0.00 0.00 0.00 82 1014.1
20260905030626 27 17 0.0 4.8 0.00 0.00 0.00 81 1014.0
20260905030532 26 17 0.0 4.8 0.00 0.00 0.00 80 1014.1
20260905030419 27 17 0.0 4.8 0.00 0.00 0.00 80 1014.1
20260905030348 26 17 0.0 4.8 0.00 0.00 0.00 80 1014.2
20260905030301 27 17 0.0 1.6 0.00 0.00 0.00 80 1014.2
20260905030034 26 11 0.0 1.6 0.00 0.00 0.00 80 1014.2
20260905025940 27 11 0.0 1.6 0.00 0.00 0.00 81 1014.2
20260905025824 27 11 0.0 1.6 0.00 0.00 0.00 81 1014.1
20260905025732 27 11 0.0 1.6 0.00 0.00 0.00 80 1014.2
20260905025619 27 11 0.0 1.6 0.00 0.00 0.00 80 1014.2
20260905025546 27 11 0.0 1.6 0.00 0.00 0.00 80 1014.2
20260905025436 27 11 0.0 3.2 0.00 0.00 0.00 80 1014.3
20260905025343 27 11 0.0 3.2 0.00 0.00 0.00 80 1014.3
20260905025229 27 11 0.0 3.2 0.00 0.00 0.00 80 1014.3
20260905025157 27 11 0.0 3.2 0.00 0.00 0.00 79 1014.2
20260905025022 27 11 0.0 3.2 0.00 0.00 0.00 79 1014.3
20260905024929 27 11 0.0 3.2 0.00 0.00 0.00 79 1014.2
20260905024840 27 11 0.0 3.2 0.00 0.00 0.00 79 1014.3
20260905024810 27 11 1.6 3.2 0.00 0.00 0.00 79 1014.3
20260905024522 27 11 1.6 4.8 0.00 0.00 0.00 79 1014.3
20260905024450 27 11 1.6 4.8 0.00 0.00 0.00 79 1014.3
20260905024336 27 11 1.6 4.8 0.00 0.00 0.00 79 1014.4
20260905024228 27 11 1.6 4.8 0.00 0.00 0.00 79 1014.3
20260905024134 27 11 1.6 4.8 0.00 0.00 0.00 79 1014.3
20260905024042 27 11 1.6 4.8 0.00 0.00 0.00 79 1014.3
20260905023949 27 11 3.2 4.8 0.00 0.00 0.00 79 1014.4
20260905023854 27 11 3.2 4.8 0.00 0.00 0.00 79 1014.4
20260905023740 27 11 3.2 4.8 0.00 0.00 0.00 79 1014.3
20260905023627 27 11 3.2 4.8 0.00 0.00 0.00 78 1014.4
20260905023517 27 11 1.6 4.8 0.00 0.00 0.00 77 1014.3
20260905023425 27 11 1.6 4.8 0.00 0.00 0.00 78 1014.4
20260905023332 27 11 1.6 4.8 0.00 0.00 0.00 78 1014.4
20260905023302 27 11 1.6 4.8 0.00 0.00 0.00 78 1014.4
20260905023055 27 11 3.2 4.8 0.00 0.00 0.00 77 1014.3
20260905022924 27 34 3.2 4.8 0.00 0.00 0.00 76 1014.4
20260905022831 27 5 1.6 4.8 0.00 0.00 0.00 77 1014.4
20260905022718 27 5 0.0 3.2 0.00 0.00 0.00 77 1014.5
20260905022625 27 5 0.0 3.2 0.00 0.00 0.00 77 1014.3
20260905022533 27 5 0.0 3.2 0.00 0.00 0.00 78 1014.4
20260905022420 27 5 1.6 3.2 0.00 0.00 0.00 78 1014.4
20260905022331 27 5 1.6 3.2 0.00 0.00 0.00 78 1014.3
20260905022237 27 5 1.6 3.2 0.00 0.00 0.00 78 1014.3
20260905022143 27 5 1.6 3.2 0.00 0.00 0.00 78 1014.4
20260905022028 27 5 1.6 3.2 0.00 0.00 0.00 78 1014.4
20260905021935 27 5 1.6 3.2 0.00 0.00 0.00 78 1014.3
20260905021824 27 5 0.0 3.2 0.00 0.00 0.00 78 1014.4
20260905021800 27 5 0.0 3.2 0.00 0.00 0.00 77 1014.4
20260905021532 27 5 1.6 3.2 0.00 0.00 0.00 77 1014.4
20260905021418 27 5 1.6 3.2 0.00 0.00 0.00 77 1014.3
20260905021325 27 5 1.6 3.2 0.00 0.00 0.00 77 1014.3
20260905021254 27 5 1.6 3.2 0.00 0.00 0.00 78 1014.3
20260905021123 27 46 1.6 3.2 0.00 0.00 0.00 78 1014.4
20260905021031 27 46 1.6 3.2 0.00 0.00 0.00 78 1014.3
20260905020918 27 46 0.0 3.2 0.00 0.00 0.00 77 1014.3
20260905020845 27 46 0.0 3.2 0.00 0.00 0.00 77 1014.2
20260905020731 27 46 0.0 3.2 0.00 0.00 0.00 77 1014.3
20260905020620 27 46 0.0 3.2 0.00 0.00 0.00 77 1014.3
20260905020528 27 46 1.6 3.2 0.00 0.00 0.00 78 1014.3
20260905020435 27 46 1.6 3.2 0.00 0.00 0.00 78 1014.3
20260905020322 27 46 1.6 3.2 0.00 0.00 0.00 77 1014.3
20260905020254 27 46 1.6 3.2 0.00 0.00 0.00 77 1014.3
20260905020031 27 30 0.0 3.2 0.00 0.00 0.00 77 1014.3
20260905015918 27 5 0.0 1.6 0.00 0.00 0.00 77 1014.3
20260905015827 27 5 0.0 1.6 0.00 0.00 0.00 76 1014.3
20260905015735 27 5 0.0 1.6 0.00 0.00 0.00 76 1014.3
20260905015640 27 5 0.0 1.6 0.00 0.00 0.00 76 1014.3
20260905015528 27 5 0.0 3.2 0.00 0.00 0.00 76 1014.4
20260905015419 27 5 0.0 3.2 0.00 0.00 0.00 75 1014.3
20260905015327 27 5 0.0 3.2 0.00 0.00 0.00 75 1014.2
20260905015234 27 5 0.0 3.2 0.00 0.00 0.00 75 1014.3
20260905015121 27 5 0.0 4.8 0.00 0.00 0.00 75 1014.4
20260905015048 27 5 0.0 4.8 0.00 0.00 0.00 75 1014.4
20260905014933 27 5 0.0 4.8 0.00 0.00 0.00 75 1014.3
20260905014824 27 5 1.6 4.8 0.00 0.00 0.00 75 1014.3
20260905014756 27 5 1.6 4.8 0.00 0.00 0.00 75 1014.3
20260905014530 27 5 1.6 4.8 0.00 0.00 0.00 76 1014.3
20260905014437 27 5 1.6 4.8 0.00 0.00 0.00 76 1014.4
20260905014328 27 5 3.2 4.8 0.00 0.00 0.00 77 1014.3
20260905014236 27 5 3.2 4.8 0.00 0.00 0.00 78 1014.3
20260905014142 27 5 1.6 3.2 0.00 0.00 0.00 77 1014.3
20260905014030 27 348 1.6 3.2 0.00 0.00 0.00 77 1014.3
20260905013936 27 348 1.6 3.2 0.00 0.00 0.00 77 1014.3
20260905013844 27 348 1.6 3.2 0.00 0.00 0.00 77 1014.3
20260905013734 27 348 0.0 1.6 0.00 0.00 0.00 77 1014.3
20260905013620 27 348 0.0 0.0 0.00 0.00 0.00 76 1014.4
20260905013529 27 348 0.0 0.0 0.00 0.00 0.00 76 1014.3
20260905013456 27 348 0.0 0.0 0.00 0.00 0.00 75 1014.3
20260905013341 27 348 0.0 0.0 0.00 0.00 0.00 75 1014.3
20260905013255 27 348 0.0 0.0 0.00 0.00 0.00 75 1014.3
20260905013028 27 348 0.0 0.0 0.00 0.00 0.00 76 1014.2
20260905012935 27 348 0.0 0.0 0.00 0.00 0.00 76 1014.3
20260905012821 27 348 0.0 0.0 0.00 0.00 0.00 76 1014.2
20260905012729 27 348 0.0 0.0 0.00 0.00 0.00 76 1014.2
20260905012637 27 348 0.0 0.0 0.00 0.00 0.00 76 1014.2
20260905012527 27 348 0.0 1.6 0.00 0.00 0.00 76 1014.2
20260905012434 27 348 0.0 1.6 0.00 0.00 0.00 76 1014.2
20260905012320 27 348 0.0 3.2 0.00 0.00 0.00 75 1014.2
20260905012247 27 348 0.0 3.2 0.00 0.00 0.00 76 1014.3
20260905012133 27 348 0.0 3.2 0.00 0.00 0.00 76 1014.2
20260905012040 27 348 0.0 3.2 0.00 0.00 0.00 75 1014.3
20260905011932 27 348 0.0 3.2 0.00 0.00 0.00 75 1014.3
20260905011859 27 348 0.0 3.2 0.00 0.00 0.00 76 1014.3
20260905011809 27 348 0.0 3.2 0.00 0.00 0.00 76 1014.3
20260905011522 27 348 1.6 3.2 0.00 0.00 0.00 75 1014.1
20260905011428 27 348 0.0 3.2 0.00 0.00 0.00 75 1014.2
20260905011318 27 348 0.0 1.6 0.00 0.00 0.00 75 1014.3
20260905011246 27 348 0.0 0.0 0.00 0.00 0.00 75 1014.3
20260905011132 27 348 0.0 0.0 0.00 0.00 0.00 75 1014.2
20260905011020 27 348 0.0 0.0 0.00 0.00 0.00 75 1014.2
20260905010928 27 348 0.0 0.0 0.00 0.00 0.00 74 1014.3
20260905010835 27 348 0.0 1.6 0.00 0.00 0.00 74 1014.1
20260905010727 28 348 0.0 4.8 0.00 0.00 0.00 74 1014.2
20260905010633 28 348 0.0 4.8 0.00 0.00 0.00 73 1014.1
20260905010521 28 348 0.0 4.8 0.00 0.00 0.00 73 1014.1
20260905010448 28 348 0.0 4.8 0.00 0.00 0.00 74 1014.1
20260905010355 28 348 0.0 4.8 0.00 0.00 0.00 74 1014.1
20260905010329 28 348 0.0 4.8 0.00 0.00 0.00 73 1014.1
20260905010021 28 348 3.2 4.8 0.00 0.00 0.00 74 1014.1
20260905005928 28 348 3.2 4.8 0.00 0.00 0.00 74 1014.1
20260905005834 28 333 3.2 4.8 0.00 0.00 0.00 73 1014.1
20260905005720 28 351 3.2 4.8 0.00 0.00 0.00 74 1014.1
20260905005627 28 351 3.2 4.8 0.00 0.00 0.00 74 1014.1
20260905005537 28 347 1.6 4.8 0.00 0.00 0.00 74 1014.1
20260905005424 28 347 1.6 4.8 0.00 0.00 0.00 74 1014.1
20260905005331 28 347 3.2 6.4 0.00 0.00 0.00 74 1014.1
20260905005239 28 337 3.2 6.4 0.00 0.00 0.00 74 1014.2
20260905005124 28 344 3.2 6.4 0.00 0.00 0.00 74 1014.1
20260905005032 28 322 3.2 6.4 0.00 0.00 0.00 75 1014.1
20260905004923 28 345 3.2 6.4 0.00 0.00 0.00 74 1014.2
20260905004831 28 342 3.2 6.4 0.00 0.00 0.00 75 1014.1
20260905004802 28 342 4.8 6.4 0.00 0.00 0.00 74 1014.1
20260905004531 28 334 4.8 6.4 0.00 0.00 0.00 74 1014.1
20260905004422 28 331 4.8 6.4 0.00 0.00 0.00 74 1014.1
20260905004329 28 342 4.8 8.0 0.00 0.00 0.00 74 1014.2
20260905004237 28 344 4.8 8.0 0.00 0.00 0.00 74 1014.1
20260905004124 28 329 4.8 8.0 0.00 0.00 0.00 74 1014.1
20260905004030 28 348 4.8 8.0 0.00 0.00 0.00 74 1014.1
20260905003922 28 346 4.8 8.0 0.00 0.00 0.00 74 1014.1
20260905003828 28 346 4.8 8.0 0.00 0.00 0.00 74 1014.1
20260905003733 28 323 6.4 8.0 0.00 0.00 0.00 74 1014.1
20260905003622 28 333 6.4 8.0 0.00 0.00 0.00 74 1014.0
20260905003529 28 343 6.4 8.0 0.00 0.00 0.00 74 1014.1
20260905003435 28 341 4.8 6.4 0.00 0.00 0.00 73 1014.1
20260905003326 28 337 4.8 6.4 0.00 0.00 0.00 74 1014.1
20260905003256 28 360 4.8 6.4 0.00 0.00 0.00 73 1014.1
20260905003030 28 5 4.8 6.4 0.00 0.00 0.00 73 1014.2
20260905002937 28 334 4.8 6.4 0.00 0.00 0.00 73 1014.1
20260905002828 28 323 3.2 6.4 0.00 0.00 0.00 73 1014.1
20260905002734 28 342 3.2 6.4 0.00 0.00 0.00 73 1014.0
20260905002621 28 339 3.2 6.4 0.00 0.00 0.00 72 1014.0
20260905002528 28 314 4.8 6.4 0.00 0.00 0.00 73 1014.1
20260905002435 28 344 4.8 6.4 0.00 0.00 0.00 73 1014.1
20260905002320 28 360 4.8 6.4 0.00 0.00 0.00 73 1014.1
20260905002232 28 329 4.8 6.4 0.00 0.00 0.00 73 1014.1
20260905002118 28 346 4.8 6.4 0.00 0.00 0.00 73 1014.0
20260905002025 28 340 4.8 6.4 0.00 0.00 0.00 73 1014.1
20260905001931 28 333 3.2 6.4 0.00 0.00 0.00 72 1014.0
20260905001859 28 334 3.2 4.8 0.00 0.00 0.00 72 1014.0
20260905001832 28 327 3.2 6.4 0.00 0.00 0.00 72 1014.0
20260905001544 28 328 3.2 6.4 0.00 0.00 0.00 72 1014.0
20260905001450 28 317 3.2 6.4 0.00 0.00 0.00 71 1014.1
20260905001336 28 347 3.2 6.4 0.00 0.00 0.00 72 1014.1
20260905001223 28 339 3.2 6.4 0.00 0.00 0.00 72 1014.1
20260905001128 28 323 3.2 6.4 0.00 0.00 0.00 72 1014.0
20260905001019 28 345 3.2 6.4 0.00 0.00 0.00 71 1014.1
20260905000927 28 329 4.8 8.0 0.00 0.00 0.00 71 1014.1
20260905000834 28 340 4.8 8.0 0.00 0.00 0.00 71 1014.0
20260905000721 28 349 4.8 8.0 0.00 0.00 0.00 72 1014.0
20260905000648 28 355 4.8 8.0 0.00 0.00 0.00 71 1014.0
20260905000553 28 355 3.2 8.0 0.00 0.00 0.00 71 1014.0
20260905000424 29 13 3.2 8.0 0.00 0.00 0.00 71 1014.1
20260905000350 29 340 4.8 8.0 0.00 0.00 0.00 71 1014.1
20260905000300 29 335 4.8 8.0 0.00 0.00 0.00 71 1014.1
20260905000032 29 315 3.2 9.7 0.00 0.00 0.00 71 1014.0
20260904235920 29 345 3.2 9.7 0.00 0.00 0.00 71 1014.0
20260904235830 29 285 4.8 9.7 0.00 0.00 0.00 71 1014.0
20260904235717 29 306 4.8 9.7 0.00 0.00 0.00 71 1014.0
20260904235624 29 273 4.8 9.7 0.00 0.00 0.00 71 1014.0
20260904235552 29 297 4.8 9.7 0.00 0.00 0.00 71 1014.1
20260904235437 29 312 4.8 9.7 0.00 0.00 0.00 71 1014.1
20260904235322 29 303 6.4 12.9 0.00 0.00 0.00 71 1014.1
20260904235229 29 313 4.8 12.9 0.00 0.00 0.00 71 1014.0
20260904235121 29 323 1.6 12.9 0.00 0.00 0.00 71 1014.0
20260904235027 29 321 3.2 12.9 0.00 0.00 0.00 71 1014.1
20260904234934 29 297 3.2 12.9 0.00 0.00 0.00 71 1014.1
20260904234821 29 338 4.8 12.9 0.00 0.00 0.00 71 1014.1
20260904234756 29 338 6.4 12.9 0.00 0.00 0.00 71 1014.1
20260904234548 29 336 6.4 12.9 0.00 0.00 0.00 71 1014.1
20260904234434 29 330 6.4 12.9 0.00 0.00 0.00 71 1014.1
20260904234320 29 336 4.8 12.9 0.00 0.00 0.00 71 1014.1
20260904234226 29 327 4.8 12.9 0.00 0.00 0.00 71 1014.1
20260904234135 29 338 4.8 12.9 0.00 0.00 0.00 71 1014.1
20260904234026 29 300 4.8 12.9 0.00 0.00 0.00 71 1014.0
20260904233934 29 334 6.4 12.9 0.00 0.00 0.00 71 1014.1
20260904233821 29 321 6.4 14.5 0.00 0.00 0.00 70 1014.0
20260904233729 29 342 6.4 14.5 0.00 0.00 0.00 70 1014.1
20260904233635 29 338 6.4 14.5 0.00 0.00 0.00 70 1014.1
20260904233526 29 333 8.0 14.5 0.00 0.00 0.00 70 1014.0
20260904233434 29 330 8.0 14.5 0.00 0.00 0.00 70 1014.0
20260904233321 30 332 8.0 14.5 0.00 0.00 0.00 70 1014.0
20260904233251 30 325 8.0 14.5 0.00 0.00 0.00 70 1014.0
20260904233024 30 348 9.7 16.1 0.00 0.00 0.00 70 1014.0
20260904232935 30 340 9.7 16.1 0.00 0.00 0.00 70 1014.0
20260904232822 30 341 8.0 16.1 0.00 0.00 0.00 70 1014.0
20260904232728 30 328 8.0 16.1 0.00 0.00 0.00 69 1014.2
20260904232634 30 315 8.0 16.1 0.00 0.00 0.00 69 1014.0
20260904232521 30 331 8.0 16.1 0.00 0.00 0.00 69 1014.0
20260904232431 30 327 9.7 16.1 0.00 0.00 0.00 69 1014.1
20260904232357 30 346 9.7 16.1 0.00 0.00 0.00 69 1014.0
20260904232222 30 355 9.7 16.1 0.00 0.00 0.00 69 1014.0
20260904232129 30 334 8.0 16.1 0.00 0.00 0.00 69 1014.0
20260904232035 30 320 6.4 16.1 0.00 0.00 0.00 69 1014.0
20260904231923 30 346 8.0 17.7 0.00 0.00 0.00 68 1013.9
20260904231833 30 343 8.0 17.7 0.00 0.00 0.00 68 1013.9
20260904231803 30 344 9.7 17.7 0.00 0.00 0.00 68 1013.9
20260904231536 30 355 11.3 19.3 0.00 0.00 0.00 68 1013.9
20260904231421 30 5 11.3 19.3 0.00 0.00 0.00 67 1013.8
20260904231328 30 5 12.9 19.3 0.00 0.00 0.00 67 1013.9
20260904231219 30 330 11.3 19.3 0.00 0.00 0.00 67 1013.9
20260904231126 30 338 11.3 19.3 0.00 0.00 0.00 67 1014.0
20260904231033 30 5 9.7 19.3 0.00 0.00 0.00 67 1014.0
20260904230919 30 331 9.7 19.3 0.00 0.00 0.00 66 1014.0
20260904230827 30 316 12.9 19.3 0.00 0.00 0.00 66 1014.1
20260904230740 31 340 12.9 19.3 0.00 0.00 0.00 66 1014.1